| time (UTC) | temp F | wind direction | speed MPH | gust MPH | rain 1hr in | rain 24hr in | rain mn in | humidity % | barometer mb |
| 20260504070347 | 55 | 232 | 5.0 | 9.0 | 0.00 | 0.00 | 0.00 | 52 | 1000.8 |
| 20260504070246 | 55 | 232 | 6.0 | 9.0 | 0.00 | 0.00 | 0.00 | 52 | 1000.8 |
| 20260504070146 | 55 | 232 | 5.0 | 9.0 | 0.00 | 0.00 | 0.00 | 51 | 1000.8 |
| 20260504060247 | 53 | 210 | 5.0 | 7.0 | 0.00 | 0.00 | 0.00 | 52 | 1001.7 |
| 20260504060146 | 53 | 210 | 5.0 | 7.0 | 0.00 | 0.00 | 0.00 | 53 | 1001.7 |
| 20260504050746 | 52 | 208 | 2.0 | 6.0 | 0.00 | 0.00 | 0.00 | 54 | 1002.5 |
| 20260504050645 | 52 | 207 | 2.0 | 6.0 | 0.00 | 0.00 | 0.00 | 54 | 1002.6 |
| 20260504050546 | 52 | 206 | 2.0 | 6.0 | 0.00 | 0.00 | 0.00 | 54 | 1002.5 |
| 20260504050447 | 52 | 206 | 1.0 | 6.0 | 0.00 | 0.00 | 0.00 | 54 | 1002.5 |
| 20260504050346 | 52 | 207 | 1.0 | 6.0 | 0.00 | 0.00 | 0.00 | 54 | 1002.5 |
| 20260504050246 | 51 | 209 | 1.0 | 6.0 | 0.00 | 0.00 | 0.00 | 55 | 1002.6 |
| 20260504050146 | 51 | 210 | 0.0 | 5.0 | 0.00 | 0.00 | 0.00 | 56 | 1002.6 |
| 20260504045946 | 50 | 192 | 1.0 | 3.0 | 0.00 | 0.00 | 0.00 | 57 | 1002.7 |
| 20260504045845 | 50 | 187 | 1.0 | 3.0 | 0.00 | 0.00 | 0.00 | 57 | 1002.7 |
| 20260504045745 | 50 | 188 | 1.0 | 3.0 | 0.00 | 0.00 | 0.00 | 57 | 1002.7 |
| 20260504045646 | 50 | 190 | 1.0 | 3.0 | 0.00 | 0.00 | 0.00 | 57 | 1002.8 |
| 20260504045546 | 50 | 191 | 1.0 | 3.0 | 0.00 | 0.00 | 0.00 | 58 | 1002.8 |
| 20260504045445 | 50 | 191 | 1.0 | 3.0 | 0.00 | 0.00 | 0.00 | 58 | 1002.8 |
| 20260504045346 | 50 | 191 | 1.0 | 3.0 | 0.00 | 0.00 | 0.00 | 57 | 1002.8 |
| 20260504045246 | 51 | 191 | 2.0 | 3.0 | 0.00 | 0.00 | 0.00 | 57 | 1002.7 |
| 20260504045146 | 51 | 191 | 2.0 | 3.0 | 0.00 | 0.00 | 0.00 | 57 | 1002.8 |
| 20260504045045 | 51 | 192 | 1.0 | 3.0 | 0.00 | 0.00 | 0.00 | 57 | 1002.8 |
| 20260504044946 | 51 | 193 | 1.0 | 3.0 | 0.00 | 0.00 | 0.00 | 57 | 1002.7 |
| 20260504044846 | 51 | 194 | 1.0 | 3.0 | 0.00 | 0.00 | 0.00 | 57 | 1002.8 |
| 20260504044746 | 51 | 195 | 1.0 | 3.0 | 0.00 | 0.00 | 0.00 | 57 | 1002.8 |
| 20260504044645 | 51 | 194 | 1.0 | 3.0 | 0.00 | 0.00 | 0.00 | 57 | 1002.8 |
| 20260504044546 | 51 | 192 | 1.0 | 3.0 | 0.00 | 0.00 | 0.00 | 57 | 1002.8 |
| 20260504044446 | 51 | 191 | 0.0 | 3.0 | 0.00 | 0.00 | 0.00 | 57 | 1002.8 |
| 20260504044346 | 51 | 195 | 0.0 | 2.0 | 0.00 | 0.00 | 0.00 | 57 | 1002.8 |
| 20260504044245 | 51 | 198 | 0.0 | 2.0 | 0.00 | 0.00 | 0.00 | 57 | 1002.8 |
| 20260504044145 | 51 | 200 | 0.0 | 3.0 | 0.00 | 0.00 | 0.00 | 57 | 1002.8 |
| 20260504044045 | 51 | 199 | 0.0 | 3.0 | 0.00 | 0.00 | 0.00 | 57 | 1002.8 |
| 20260504043946 | 51 | 199 | 1.0 | 3.0 | 0.00 | 0.00 | 0.00 | 57 | 1002.9 |
| 20260504043846 | 51 | 192 | 1.0 | 4.0 | 0.00 | 0.00 | 0.00 | 57 | 1002.9 |
| 20260504043746 | 51 | 188 | 1.0 | 4.0 | 0.00 | 0.00 | 0.00 | 57 | 1002.9 |
| 20260504043645 | 51 | 186 | 1.0 | 4.0 | 0.00 | 0.00 | 0.00 | 57 | 1002.9 |
| 20260504043546 | 51 | 187 | 1.0 | 4.0 | 0.00 | 0.00 | 0.00 | 57 | 1003.0 |
| 20260504043447 | 51 | 187 | 2.0 | 4.0 | 0.00 | 0.00 | 0.00 | 57 | 1002.9 |
| 20260504043346 | 52 | 186 | 2.0 | 4.0 | 0.00 | 0.00 | 0.00 | 56 | 1003.0 |
| 20260504043245 | 52 | 185 | 2.0 | 4.0 | 0.00 | 0.00 | 0.00 | 56 | 1003.0 |
| 20260504043145 | 52 | 183 | 1.0 | 4.0 | 0.00 | 0.00 | 0.00 | 56 | 1003.0 |
| 20260504043045 | 51 | 183 | 1.0 | 4.0 | 0.00 | 0.00 | 0.00 | 56 | 1003.0 |
| 20260504042946 | 51 | 182 | 1.0 | 4.0 | 0.00 | 0.00 | 0.00 | 56 | 1003.0 |
| 20260504042846 | 51 | 183 | 1.0 | 3.0 | 0.00 | 0.00 | 0.00 | 56 | 1003.1 |
| 20260504042746 | 51 | 185 | 1.0 | 3.0 | 0.00 | 0.00 | 0.00 | 57 | 1003.1 |
| 20260504042645 | 51 | 186 | 1.0 | 3.0 | 0.00 | 0.00 | 0.00 | 57 | 1003.1 |
| 20260504042546 | 51 | 186 | 1.0 | 3.0 | 0.00 | 0.00 | 0.00 | 57 | 1003.1 |
| 20260504042446 | 51 | 184 | 0.0 | 3.0 | 0.00 | 0.00 | 0.00 | 57 | 1003.0 |
| 20260504042345 | 51 | 184 | 0.0 | 3.0 | 0.00 | 0.00 | 0.00 | 57 | 1003.1 |
| 20260504042246 | 51 | 186 | 0.0 | 3.0 | 0.00 | 0.00 | 0.00 | 58 | 1003.1 |
| 20260504042146 | 50 | 187 | 1.0 | 4.0 | 0.00 | 0.00 | 0.00 | 58 | 1003.2 |
| 20260504042045 | 50 | 188 | 1.0 | 4.0 | 0.00 | 0.00 | 0.00 | 58 | 1003.1 |
| 20260504041946 | 50 | 186 | 1.0 | 4.0 | 0.00 | 0.00 | 0.00 | 58 | 1003.2 |
| 20260504041847 | 50 | 184 | 1.0 | 4.0 | 0.00 | 0.00 | 0.00 | 58 | 1003.2 |
| 20260504041745 | 50 | 184 | 1.0 | 4.0 | 0.00 | 0.00 | 0.00 | 58 | 1003.2 |
| 20260504041645 | 51 | 184 | 1.0 | 4.0 | 0.00 | 0.00 | 0.00 | 58 | 1003.2 |
| 20260504041545 | 51 | 184 | 1.0 | 4.0 | 0.00 | 0.00 | 0.00 | 58 | 1003.3 |
| 20260504041446 | 51 | 184 | 1.0 | 4.0 | 0.00 | 0.00 | 0.00 | 57 | 1003.3 |
| 20260504041346 | 51 | 184 | 1.0 | 4.0 | 0.00 | 0.00 | 0.00 | 57 | 1003.2 |
| 20260504041245 | 51 | 184 | 1.0 | 4.0 | 0.00 | 0.00 | 0.00 | 57 | 1003.2 |
| 20260504041145 | 51 | 182 | 1.0 | 4.0 | 0.00 | 0.00 | 0.00 | 57 | 1003.3 |
| 20260504041045 | 51 | 179 | 1.0 | 4.0 | 0.00 | 0.00 | 0.00 | 57 | 1003.3 |
| 20260504040946 | 51 | 178 | 0.0 | 4.0 | 0.00 | 0.00 | 0.00 | 57 | 1003.3 |
| 20260504040846 | 51 | 200 | 0.0 | 1.0 | 0.00 | 0.00 | 0.00 | 57 | 1003.4 |
| 20260504040746 | 51 | 208 | 0.0 | 1.0 | 0.00 | 0.00 | 0.00 | 58 | 1003.4 |
| 20260504040645 | 51 | 0 | 0.0 | 0.0 | 0.00 | 0.00 | 0.00 | 57 | 1003.5 |
| 20260504040546 | 51 | 219 | 0.0 | 1.0 | 0.00 | 0.00 | 0.00 | 57 | 1003.4 |
| 20260504040446 | 51 | 221 | 0.0 | 2.0 | 0.00 | 0.00 | 0.00 | 57 | 1003.4 |
| 20260504040345 | 51 | 221 | 0.0 | 2.0 | 0.00 | 0.00 | 0.00 | 57 | 1003.5 |
| 20260504040245 | 51 | 221 | 0.0 | 2.0 | 0.00 | 0.00 | 0.00 | 56 | 1003.5 |
| 20260504040145 | 52 | 221 | 0.0 | 2.0 | 0.00 | 0.00 | 0.00 | 56 | 1003.6 |
| 20260504040046 | 52 | 221 | 0.0 | 2.0 | 0.00 | 0.00 | 0.00 | 56 | 1003.6 |
| 20260504035945 | 52 | 221 | 0.0 | 2.0 | 0.00 | 0.00 | 0.00 | 55 | 1003.6 |
| 20260504035845 | 52 | 221 | 0.0 | 2.0 | 0.00 | 0.00 | 0.00 | 55 | 1003.6 |
| 20260504035746 | 52 | 221 | 0.0 | 2.0 | 0.00 | 0.00 | 0.00 | 55 | 1003.6 |
| 20260504035646 | 52 | 221 | 0.0 | 2.0 | 0.00 | 0.00 | 0.00 | 56 | 1003.6 |
| 20260504035545 | 51 | 222 | 0.0 | 2.0 | 0.00 | 0.00 | 0.00 | 56 | 1003.6 |
| 20260504035446 | 51 | 225 | 0.0 | 1.0 | 0.00 | 0.00 | 0.00 | 56 | 1003.6 |
| 20260504035346 | 51 | 225 | 0.0 | 1.0 | 0.00 | 0.00 | 0.00 | 56 | 1003.6 |
| 20260504035245 | 51 | 225 | 0.0 | 1.0 | 0.00 | 0.00 | 0.00 | 56 | 1003.6 |
| 20260504035145 | 51 | 225 | 0.0 | 1.0 | 0.00 | 0.00 | 0.00 | 56 | 1003.7 |
| 20260504035045 | 52 | 225 | 0.0 | 1.0 | 0.00 | 0.00 | 0.00 | 55 | 1003.7 |
| 20260504034946 | 52 | 225 | 0.0 | 1.0 | 0.00 | 0.00 | 0.00 | 55 | 1003.7 |
| 20260504034846 | 52 | 225 | 0.0 | 1.0 | 0.00 | 0.00 | 0.00 | 55 | 1003.7 |
| 20260504034746 | 52 | 179 | 0.0 | 2.0 | 0.00 | 0.00 | 0.00 | 55 | 1003.7 |
| 20260504034645 | 52 | 174 | 0.0 | 2.0 | 0.00 | 0.00 | 0.00 | 55 | 1003.8 |
| 20260504034546 | 51 | 172 | 0.0 | 2.0 | 0.00 | 0.00 | 0.00 | 56 | 1003.8 |
| 20260504034446 | 51 | 171 | 0.0 | 3.0 | 0.00 | 0.00 | 0.00 | 57 | 1003.8 |
| 20260504034345 | 51 | 173 | 1.0 | 3.0 | 0.00 | 0.00 | 0.00 | 57 | 1003.8 |
| 20260504034246 | 51 | 173 | 1.0 | 3.0 | 0.00 | 0.00 | 0.00 | 56 | 1003.9 |
| 20260504034146 | 52 | 174 | 1.0 | 3.0 | 0.00 | 0.00 | 0.00 | 57 | 1003.9 |
| 20260504034045 | 52 | 176 | 1.0 | 3.0 | 0.00 | 0.00 | 0.00 | 57 | 1003.9 |
| 20260504033945 | 52 | 176 | 1.0 | 3.0 | 0.00 | 0.00 | 0.00 | 56 | 1003.8 |
| 20260504033846 | 52 | 176 | 1.0 | 3.0 | 0.00 | 0.00 | 0.00 | 56 | 1003.9 |
| 20260504033746 | 52 | 176 | 1.0 | 3.0 | 0.00 | 0.00 | 0.00 | 56 | 1003.9 |
| 20260504033645 | 52 | 176 | 1.0 | 3.0 | 0.00 | 0.00 | 0.00 | 56 | 1003.9 |
| 20260504033545 | 52 | 176 | 1.0 | 3.0 | 0.00 | 0.00 | 0.00 | 56 | 1003.9 |
| 20260504033445 | 52 | 177 | 1.0 | 3.0 | 0.00 | 0.00 | 0.00 | 56 | 1003.8 |
| 20260504033347 | 52 | 178 | 1.0 | 3.0 | 0.00 | 0.00 | 0.00 | 56 | 1003.8 |
| 20260504033245 | 51 | 182 | 0.0 | 3.0 | 0.00 | 0.00 | 0.00 | 57 | 1003.9 |
| 20260504033145 | 51 | 185 | 0.0 | 3.0 | 0.00 | 0.00 | 0.00 | 57 | 1003.9 |
| 20260504033045 | 51 | 0 | 0.0 | 0.0 | 0.00 | 0.00 | 0.00 | 57 | 1003.9 |
| 20260504032945 | 51 | 0 | 0.0 | 0.0 | 0.00 | 0.00 | 0.00 | 57 | 1003.9 |
| 20260504032846 | 51 | 0 | 0.0 | 0.0 | 0.00 | 0.00 | 0.00 | 57 | 1003.9 |
| 20260504032745 | 52 | 0 | 0.0 | 0.0 | 0.00 | 0.00 | 0.00 | 57 | 1004.0 |
| 20260504032645 | 52 | 0 | 0.0 | 0.0 | 0.00 | 0.00 | 0.00 | 56 | 1004.0 |
| 20260504032546 | 52 | 0 | 0.0 | 0.0 | 0.00 | 0.00 | 0.00 | 56 | 1004.0 |
| 20260504032445 | 52 | 0 | 0.0 | 0.0 | 0.00 | 0.00 | 0.00 | 56 | 1004.0 |
| 20260504032346 | 52 | 0 | 0.0 | 0.0 | 0.00 | 0.00 | 0.00 | 56 | 1004.0 |
| 20260504032245 | 52 | 0 | 0.0 | 0.0 | 0.00 | 0.00 | 0.00 | 56 | 1004.0 |
| 20260504032145 | 52 | 0 | 0.0 | 0.0 | 0.00 | 0.00 | 0.00 | 55 | 1004.0 |
| 20260504032045 | 52 | 0 | 0.0 | 0.0 | 0.00 | 0.00 | 0.00 | 55 | 1004.1 |
| 20260504031945 | 53 | 0 | 0.0 | 0.0 | 0.00 | 0.00 | 0.00 | 54 | 1004.1 |
| 20260504031846 | 53 | 0 | 0.0 | 0.0 | 0.00 | 0.00 | 0.00 | 54 | 1004.1 |
| 20260504031745 | 53 | 0 | 0.0 | 0.0 | 0.00 | 0.00 | 0.00 | 54 | 1004.1 |
| 20260504031645 | 53 | 0 | 0.0 | 0.0 | 0.00 | 0.00 | 0.00 | 53 | 1004.1 |
| 20260504031546 | 53 | 0 | 0.0 | 0.0 | 0.00 | 0.00 | 0.00 | 52 | 1004.1 |
| 20260504031446 | 53 | 0 | 0.0 | 0.0 | 0.00 | 0.00 | 0.00 | 52 | 1004.1 |
| 20260504031345 | 53 | 0 | 0.0 | 0.0 | 0.00 | 0.00 | 0.00 | 52 | 1004.1 |
| 20260504031245 | 53 | 0 | 0.0 | 0.0 | 0.00 | 0.00 | 0.00 | 52 | 1004.1 |
| 20260504031145 | 54 | 0 | 0.0 | 0.0 | 0.00 | 0.00 | 0.00 | 52 | 1004.2 |
| 20260504031045 | 54 | 0 | 0.0 | 0.0 | 0.00 | 0.00 | 0.00 | 52 | 1004.1 |
| 20260504030946 | 54 | 0 | 0.0 | 0.0 | 0.00 | 0.00 | 0.00 | 52 | 1004.1 |
| 20260504030845 | 53 | 142 | 0.0 | 1.0 | 0.00 | 0.00 | 0.00 | 52 | 1004.2 |
| 20260504030745 | 53 | 142 | 0.0 | 1.0 | 0.00 | 0.00 | 0.00 | 52 | 1004.1 |
| 20260504030645 | 53 | 142 | 0.0 | 1.0 | 0.00 | 0.00 | 0.00 | 52 | 1004.2 |
| 20260504030547 | 54 | 142 | 0.0 | 1.0 | 0.00 | 0.00 | 0.00 | 52 | 1004.2 |
| 20260504030445 | 54 | 142 | 0.0 | 1.0 | 0.00 | 0.00 | 0.00 | 52 | 1004.2 |
| 20260504030345 | 54 | 142 | 0.0 | 1.0 | 0.00 | 0.00 | 0.00 | 52 | 1004.2 |
| 20260504030245 | 54 | 142 | 0.0 | 1.0 | 0.00 | 0.00 | 0.00 | 52 | 1004.2 |
| 20260504030146 | 54 | 142 | 0.0 | 1.0 | 0.00 | 0.00 | 0.00 | 52 | 1004.2 |
| 20260504030045 | 54 | 142 | 0.0 | 1.0 | 0.00 | 0.00 | 0.00 | 51 | 1004.2 |
| 20260504025945 | 54 | 142 | 0.0 | 1.0 | 0.00 | 0.00 | 0.00 | 51 | 1004.3 |
| 20260504025845 | 54 | 0 | 0.0 | 0.0 | 0.00 | 0.00 | 0.00 | 51 | 1004.3 |
| 20260504025745 | 54 | 0 | 0.0 | 0.0 | 0.00 | 0.00 | 0.00 | 51 | 1004.3 |
| 20260504025645 | 54 | 0 | 0.0 | 0.0 | 0.00 | 0.00 | 0.00 | 50 | 1004.3 |
| 20260504025545 | 54 | 0 | 0.0 | 0.0 | 0.00 | 0.00 | 0.00 | 50 | 1004.3 |
| 20260504025445 | 54 | 0 | 0.0 | 0.0 | 0.00 | 0.00 | 0.00 | 50 | 1004.3 |
| 20260504025345 | 54 | 0 | 0.0 | 0.0 | 0.00 | 0.00 | 0.00 | 51 | 1004.3 |
| 20260504025246 | 54 | 0 | 0.0 | 0.0 | 0.00 | 0.00 | 0.00 | 51 | 1004.3 |
| 20260504025145 | 54 | 0 | 0.0 | 0.0 | 0.00 | 0.00 | 0.00 | 51 | 1004.3 |
| 20260504025045 | 54 | 0 | 0.0 | 0.0 | 0.00 | 0.00 | 0.00 | 51 | 1004.2 |
| 20260504024945 | 54 | 0 | 0.0 | 0.0 | 0.00 | 0.00 | 0.00 | 51 | 1004.3 |
| 20260504024846 | 54 | 0 | 0.0 | 0.0 | 0.00 | 0.00 | 0.00 | 52 | 1004.3 |
| 20260504024745 | 54 | 0 | 0.0 | 0.0 | 0.00 | 0.00 | 0.00 | 50 | 1004.3 |
| 20260504024645 | 54 | 0 | 0.0 | 0.0 | 0.00 | 0.00 | 0.00 | 50 | 1004.3 |
| 20260504024545 | 54 | 173 | 0.0 | 1.0 | 0.00 | 0.00 | 0.00 | 50 | 1004.3 |
| 20260504024445 | 54 | 174 | 0.0 | 2.0 | 0.00 | 0.00 | 0.00 | 50 | 1004.3 |
| 20260504024345 | 55 | 175 | 0.0 | 2.0 | 0.00 | 0.00 | 0.00 | 50 | 1004.4 |
| 20260504024245 | 55 | 175 | 0.0 | 2.0 | 0.00 | 0.00 | 0.00 | 50 | 1004.3 |
| 20260504024145 | 55 | 175 | 0.0 | 2.0 | 0.00 | 0.00 | 0.00 | 50 | 1004.4 |
| 20260504024046 | 55 | 175 | 0.0 | 2.0 | 0.00 | 0.00 | 0.00 | 49 | 1004.3 |
| 20260504023945 | 56 | 175 | 0.0 | 2.0 | 0.00 | 0.00 | 0.00 | 49 | 1004.4 |
| 20260504023845 | 56 | 175 | 0.0 | 2.0 | 0.00 | 0.00 | 0.00 | 49 | 1004.4 |
| 20260504023745 | 56 | 175 | 0.0 | 2.0 | 0.00 | 0.00 | 0.00 | 48 | 1004.4 |
| 20260504023646 | 56 | 175 | 0.0 | 2.0 | 0.00 | 0.00 | 0.00 | 48 | 1004.4 |
| 20260504023545 | 56 | 175 | 0.0 | 2.0 | 0.00 | 0.00 | 0.00 | 48 | 1004.3 |
| 20260504023445 | 57 | 177 | 0.0 | 2.0 | 0.00 | 0.00 | 0.00 | 47 | 1004.4 |
| 20260504023345 | 57 | 0 | 0.0 | 0.0 | 0.00 | 0.00 | 0.00 | 47 | 1004.4 |
| 20260504023246 | 57 | 0 | 0.0 | 0.0 | 0.00 | 0.00 | 0.00 | 46 | 1004.4 |
| 20260504023145 | 57 | 0 | 0.0 | 0.0 | 0.00 | 0.00 | 0.00 | 46 | 1004.4 |
| 20260504023045 | 57 | 0 | 0.0 | 0.0 | 0.00 | 0.00 | 0.00 | 46 | 1004.4 |
| 20260504022945 | 57 | 0 | 0.0 | 0.0 | 0.00 | 0.00 | 0.00 | 46 | 1004.3 |
| 20260504022844 | 57 | 0 | 0.0 | 0.0 | 0.00 | 0.00 | 0.00 | 46 | 1004.3 |
| 20260504022746 | 57 | 0 | 0.0 | 0.0 | 0.00 | 0.00 | 0.00 | 46 | 1004.3 |
| 20260504022645 | 57 | 0 | 0.0 | 0.0 | 0.00 | 0.00 | 0.00 | 46 | 1004.3 |
| 20260504022545 | 58 | 0 | 0.0 | 0.0 | 0.00 | 0.00 | 0.00 | 45 | 1004.3 |
| 20260504022445 | 58 | 0 | 0.0 | 0.0 | 0.00 | 0.00 | 0.00 | 45 | 1004.4 |
| 20260504022345 | 58 | 0 | 0.0 | 0.0 | 0.00 | 0.00 | 0.00 | 45 | 1004.3 |
| 20260504022245 | 58 | 0 | 0.0 | 0.0 | 0.00 | 0.00 | 0.00 | 45 | 1004.3 |
| 20260504022145 | 58 | 0 | 0.0 | 0.0 | 0.00 | 0.00 | 0.00 | 45 | 1004.3 |
| 20260504022045 | 58 | 0 | 0.0 | 0.0 | 0.00 | 0.00 | 0.00 | 45 | 1004.4 |
| 20260504021945 | 58 | 0 | 0.0 | 0.0 | 0.00 | 0.00 | 0.00 | 45 | 1004.3 |
| 20260504021845 | 58 | 0 | 0.0 | 0.0 | 0.00 | 0.00 | 0.00 | 45 | 1004.3 |
| 20260504021745 | 58 | 0 | 0.0 | 0.0 | 0.00 | 0.00 | 0.00 | 44 | 1004.3 |
| 20260504021646 | 58 | 0 | 0.0 | 0.0 | 0.00 | 0.00 | 0.00 | 45 | 1004.2 |
| 20260504021545 | 58 | 0 | 0.0 | 0.0 | 0.00 | 0.00 | 0.00 | 45 | 1004.3 |
| 20260504021445 | 58 | 0 | 0.0 | 0.0 | 0.00 | 0.00 | 0.00 | 45 | 1004.2 |
| 20260504021345 | 57 | 0 | 0.0 | 0.0 | 0.00 | 0.00 | 0.00 | 46 | 1004.2 |
| 20260504021245 | 57 | 0 | 0.0 | 0.0 | 0.00 | 0.00 | 0.00 | 46 | 1004.3 |
| 20260504021145 | 57 | 0 | 0.0 | 0.0 | 0.00 | 0.00 | 0.00 | 46 | 1004.3 |
| 20260504021045 | 57 | 0 | 0.0 | 0.0 | 0.00 | 0.00 | 0.00 | 46 | 1004.3 |
| 20260504020944 | 57 | 0 | 0.0 | 0.0 | 0.00 | 0.00 | 0.00 | 46 | 1004.3 |
| 20260504020844 | 57 | 0 | 0.0 | 0.0 | 0.00 | 0.00 | 0.00 | 46 | 1004.3 |
| 20260504020745 | 57 | 0 | 0.0 | 0.0 | 0.00 | 0.00 | 0.00 | 46 | 1004.3 |
| 20260504020645 | 57 | 0 | 0.0 | 0.0 | 0.00 | 0.00 | 0.00 | 46 | 1004.3 |
| 20260504020545 | 57 | 0 | 0.0 | 0.0 | 0.00 | 0.00 | 0.00 | 46 | 1004.3 |
| 20260504020446 | 57 | 0 | 0.0 | 0.0 | 0.00 | 0.00 | 0.00 | 45 | 1004.3 |
| 20260504020346 | 58 | 0 | 0.0 | 0.0 | 0.00 | 0.00 | 0.00 | 45 | 1004.3 |
| 20260504020245 | 58 | 0 | 0.0 | 0.0 | 0.00 | 0.00 | 0.00 | 45 | 1004.3 |
| 20260504020145 | 58 | 0 | 0.0 | 0.0 | 0.00 | 0.00 | 0.00 | 45 | 1004.4 |
| 20260504020045 | 58 | 0 | 0.0 | 0.0 | 0.00 | 0.00 | 0.00 | 45 | 1004.3 |
| 20260504015944 | 58 | 0 | 0.0 | 0.0 | 0.00 | 0.00 | 0.00 | 44 | 1004.4 |
| 20260504015845 | 58 | 0 | 0.0 | 0.0 | 0.00 | 0.00 | 0.00 | 44 | 1004.4 |
| 20260504015745 | 58 | 0 | 0.0 | 0.0 | 0.00 | 0.00 | 0.00 | 44 | 1004.4 |
| 20260504015645 | 58 | 0 | 0.0 | 0.0 | 0.00 | 0.00 | 0.00 | 44 | 1004.4 |
| 20260504015545 | 58 | 0 | 0.0 | 0.0 | 0.00 | 0.00 | 0.00 | 44 | 1004.3 |
| 20260504015446 | 58 | 0 | 0.0 | 0.0 | 0.00 | 0.00 | 0.00 | 44 | 1004.3 |
| 20260504015345 | 58 | 0 | 0.0 | 0.0 | 0.00 | 0.00 | 0.00 | 44 | 1004.4 |
| 20260504015245 | 58 | 0 | 0.0 | 0.0 | 0.00 | 0.00 | 0.00 | 44 | 1004.3 |
| 20260504015146 | 58 | 0 | 0.0 | 0.0 | 0.00 | 0.00 | 0.00 | 44 | 1004.3 |
| 20260504015045 | 58 | 0 | 0.0 | 0.0 | 0.00 | 0.00 | 0.00 | 44 | 1004.3 |
| 20260504014945 | 59 | 0 | 0.0 | 0.0 | 0.00 | 0.00 | 0.00 | 43 | 1004.3 |
| 20260504014845 | 59 | 0 | 0.0 | 0.0 | 0.00 | 0.00 | 0.00 | 43 | 1004.3 |
| 20260504014745 | 59 | 0 | 0.0 | 0.0 | 0.00 | 0.00 | 0.00 | 44 | 1004.3 |
| 20260504014645 | 59 | 0 | 0.0 | 0.0 | 0.00 | 0.00 | 0.00 | 43 | 1004.3 |
| 20260504014545 | 59 | 0 | 0.0 | 0.0 | 0.00 | 0.00 | 0.00 | 44 | 1004.4 |
| 20260504014445 | 59 | 0 | 0.0 | 0.0 | 0.00 | 0.00 | 0.00 | 43 | 1004.4 |
| 20260504014345 | 59 | 274 | 0.0 | 1.0 | 0.00 | 0.00 | 0.00 | 43 | 1004.4 |
| 20260504014245 | 59 | 274 | 0.0 | 1.0 | 0.00 | 0.00 | 0.00 | 43 | 1004.4 |
| 20260504014145 | 60 | 275 | 0.0 | 1.0 | 0.00 | 0.00 | 0.00 | 43 | 1004.4 |
| 20260504014045 | 60 | 275 | 0.0 | 2.0 | 0.00 | 0.00 | 0.00 | 43 | 1004.4 |
| 20260504013946 | 60 | 275 | 0.0 | 2.0 | 0.00 | 0.00 | 0.00 | 43 | 1004.4 |
| 20260504013845 | 60 | 275 | 0.0 | 2.0 | 0.00 | 0.00 | 0.00 | 43 | 1004.4 |
| 20260504013745 | 60 | 274 | 0.0 | 2.0 | 0.00 | 0.00 | 0.00 | 43 | 1004.4 |
| 20260504013644 | 60 | 275 | 0.0 | 2.0 | 0.00 | 0.00 | 0.00 | 43 | 1004.4 |
| 20260504013545 | 60 | 275 | 0.0 | 2.0 | 0.00 | 0.00 | 0.00 | 43 | 1004.4 |
| 20260504013445 | 60 | 275 | 0.0 | 2.0 | 0.00 | 0.00 | 0.00 | 43 | 1004.4 |
| 20260504013345 | 60 | 275 | 0.0 | 2.0 | 0.00 | 0.00 | 0.00 | 43 | 1004.4 |
| 20260504013244 | 60 | 275 | 0.0 | 2.0 | 0.00 | 0.00 | 0.00 | 43 | 1004.4 |
| 20260504013145 | 60 | 275 | 0.0 | 2.0 | 0.00 | 0.00 | 0.00 | 43 | 1004.4 |
| 20260504013045 | 60 | 276 | 0.0 | 2.0 | 0.00 | 0.00 | 0.00 | 43 | 1004.4 |
| 20260504012945 | 60 | 276 | 1.0 | 2.0 | 0.00 | 0.00 | 0.00 | 43 | 1004.4 |
| 20260504012845 | 60 | 276 | 1.0 | 2.0 | 0.00 | 0.00 | 0.00 | 43 | 1004.4 |
| 20260504012745 | 60 | 276 | 1.0 | 2.0 | 0.00 | 0.00 | 0.00 | 43 | 1004.4 |
| 20260504012645 | 60 | 276 | 0.0 | 2.0 | 0.00 | 0.00 | 0.00 | 43 | 1004.4 |
| 20260504012545 | 60 | 276 | 1.0 | 2.0 | 0.00 | 0.00 | 0.00 | 42 | 1004.4 |
| 20260504012445 | 61 | 276 | 1.0 | 3.0 | 0.00 | 0.00 | 0.00 | 42 | 1004.4 |
| 20260504012345 | 61 | 277 | 1.0 | 3.0 | 0.00 | 0.00 | 0.00 | 41 | 1004.4 |
| 20260504012246 | 61 | 277 | 1.0 | 4.0 | 0.00 | 0.00 | 0.00 | 41 | 1004.4 |
| 20260504012145 | 61 | 277 | 1.0 | 4.0 | 0.00 | 0.00 | 0.00 | 41 | 1004.4 |
| 20260504012045 | 61 | 278 | 1.0 | 4.0 | 0.00 | 0.00 | 0.00 | 42 | 1004.4 |
| 20260504011945 | 61 | 278 | 1.0 | 4.0 | 0.00 | 0.00 | 0.00 | 42 | 1004.4 |
| 20260504011845 | 61 | 279 | 2.0 | 4.0 | 0.00 | 0.00 | 0.00 | 41 | 1004.4 |
| 20260504011745 | 61 | 279 | 2.0 | 4.0 | 0.00 | 0.00 | 0.00 | 41 | 1004.4 |
| 20260504011645 | 62 | 279 | 2.0 | 4.0 | 0.00 | 0.00 | 0.00 | 41 | 1004.4 |
| 20260504011545 | 62 | 279 | 2.0 | 4.0 | 0.00 | 0.00 | 0.00 | 41 | 1004.5 |
| 20260504011446 | 62 | 279 | 2.0 | 4.0 | 0.00 | 0.00 | 0.00 | 41 | 1004.4 |
| 20260504011345 | 62 | 279 | 2.0 | 4.0 | 0.00 | 0.00 | 0.00 | 40 | 1004.4 |
| 20260504011245 | 62 | 280 | 3.0 | 5.0 | 0.00 | 0.00 | 0.00 | 40 | 1004.4 |
| 20260504011144 | 63 | 281 | 3.0 | 6.0 | 0.00 | 0.00 | 0.00 | 40 | 1004.4 |
| 20260504011044 | 63 | 281 | 3.0 | 6.0 | 0.00 | 0.00 | 0.00 | 40 | 1004.4 |
| 20260504010946 | 63 | 282 | 3.0 | 6.0 | 0.00 | 0.00 | 0.00 | 39 | 1004.4 |
| 20260504010845 | 63 | 282 | 3.0 | 6.0 | 0.00 | 0.00 | 0.00 | 39 | 1004.4 |
| 20260504010745 | 64 | 283 | 4.0 | 6.0 | 0.00 | 0.00 | 0.00 | 39 | 1004.4 |
| 20260504010645 | 64 | 284 | 4.0 | 6.0 | 0.00 | 0.00 | 0.00 | 38 | 1004.4 |
| 20260504010544 | 64 | 284 | 4.0 | 6.0 | 0.00 | 0.00 | 0.00 | 38 | 1004.4 |
| 20260504010445 | 64 | 284 | 4.0 | 7.0 | 0.00 | 0.00 | 0.00 | 38 | 1004.4 |
| 20260504010345 | 65 | 285 | 5.0 | 7.0 | 0.00 | 0.00 | 0.00 | 37 | 1004.4 |
| 20260504010245 | 65 | 284 | 5.0 | 7.0 | 0.00 | 0.00 | 0.00 | 37 | 1004.4 |
| 20260504010145 | 65 | 284 | 5.0 | 7.0 | 0.00 | 0.00 | 0.00 | 37 | 1004.4 |
| 20260504010045 | 65 | 284 | 5.0 | 8.0 | 0.00 | 0.00 | 0.00 | 36 | 1004.4 |
| 20260504005945 | 65 | 285 | 5.0 | 8.0 | 0.00 | 0.00 | 0.00 | 36 | 1004.4 |
| 20260504005845 | 65 | 285 | 5.0 | 8.0 | 0.00 | 0.00 | 0.00 | 36 | 1004.4 |
| 20260504005745 | 66 | 285 | 5.0 | 8.0 | 0.00 | 0.00 | 0.00 | 36 | 1004.4 |
| 20260504005645 | 66 | 285 | 5.0 | 9.0 | 0.00 | 0.00 | 0.00 | 36 | 1004.4 |
| 20260504005544 | 66 | 287 | 6.0 | 9.0 | 0.00 | 0.00 | 0.00 | 36 | 1004.4 |
| 20260504005445 | 66 | 289 | 6.0 | 9.0 | 0.00 | 0.00 | 0.00 | 35 | 1004.4 |
| 20260504005345 | 67 | 290 | 6.0 | 10.0 | 0.00 | 0.00 | 0.00 | 35 | 1004.4 |
| 20260504005245 | 67 | 292 | 6.0 | 10.0 | 0.00 | 0.00 | 0.00 | 35 | 1004.5 |
| 20260504005145 | 67 | 294 | 6.0 | 10.0 | 0.00 | 0.00 | 0.00 | 34 | 1004.5 |
| 20260504005045 | 67 | 295 | 6.0 | 10.0 | 0.00 | 0.00 | 0.00 | 34 | 1004.5 |
| 20260504004944 | 67 | 298 | 6.0 | 10.0 | 0.00 | 0.00 | 0.00 | 34 | 1004.5 |
| 20260504004845 | 67 | 299 | 6.0 | 10.0 | 0.00 | 0.00 | 0.00 | 34 | 1004.4 |
| 20260504004745 | 67 | 299 | 6.0 | 11.0 | 0.00 | 0.00 | 0.00 | 34 | 1004.5 |
| 20260504004645 | 68 | 301 | 6.0 | 11.0 | 0.00 | 0.00 | 0.00 | 34 | 1004.5 |
| 20260504004544 | 68 | 302 | 6.0 | 11.0 | 0.00 | 0.00 | 0.00 | 33 | 1004.5 |
| 20260504004445 | 68 | 303 | 6.0 | 11.0 | 0.00 | 0.00 | 0.00 | 34 | 1004.5 |
| 20260504004345 | 68 | 303 | 6.0 | 11.0 | 0.00 | 0.00 | 0.00 | 34 | 1004.5 |
| 20260504004245 | 68 | 302 | 6.0 | 11.0 | 0.00 | 0.00 | 0.00 | 34 | 1004.5 |
| 20260504004144 | 68 | 303 | 6.0 | 12.0 | 0.00 | 0.00 | 0.00 | 34 | 1004.5 |
| 20260504004045 | 68 | 302 | 6.0 | 12.0 | 0.00 | 0.00 | 0.00 | 34 | 1004.6 |
| 20260504003945 | 68 | 301 | 6.0 | 12.0 | 0.00 | 0.00 | 0.00 | 34 | 1004.5 |
| 20260504003844 | 68 | 300 | 7.0 | 13.0 | 0.00 | 0.00 | 0.00 | 34 | 1004.6 |
| 20260504003745 | 68 | 301 | 7.0 | 13.0 | 0.00 | 0.00 | 0.00 | 34 | 1004.6 |
| 20260504003645 | 68 | 300 | 7.0 | 13.0 | 0.00 | 0.00 | 0.00 | 33 | 1004.6 |
| 20260504003544 | 68 | 300 | 7.0 | 13.0 | 0.00 | 0.00 | 0.00 | 34 | 1004.7 |
| 20260504003445 | 68 | 299 | 7.0 | 13.0 | 0.00 | 0.00 | 0.00 | 34 | 1004.6 |
| 20260504003345 | 68 | 299 | 7.0 | 13.0 | 0.00 | 0.00 | 0.00 | 34 | 1004.6 |
| 20260504003246 | 68 | 300 | 7.0 | 13.0 | 0.00 | 0.00 | 0.00 | 34 | 1004.6 |
| 20260504003145 | 69 | 299 | 7.0 | 13.0 | 0.00 | 0.00 | 0.00 | 33 | 1004.6 |
| 20260504003045 | 69 | 299 | 8.0 | 13.0 | 0.00 | 0.00 | 0.00 | 33 | 1004.7 |
| 20260504002945 | 69 | 298 | 8.0 | 13.0 | 0.00 | 0.00 | 0.00 | 33 | 1004.6 |
| 20260504002844 | 69 | 298 | 8.0 | 13.0 | 0.00 | 0.00 | 0.00 | 34 | 1004.6 |
| 20260504002744 | 69 | 298 | 8.0 | 13.0 | 0.00 | 0.00 | 0.00 | 33 | 1004.6 |
| 20260504002645 | 69 | 297 | 8.0 | 13.0 | 0.00 | 0.00 | 0.00 | 33 | 1004.6 |
| 20260504002545 | 69 | 296 | 8.0 | 13.0 | 0.00 | 0.00 | 0.00 | 33 | 1004.6 |
| 20260504002444 | 69 | 295 | 8.0 | 13.0 | 0.00 | 0.00 | 0.00 | 33 | 1004.6 |
| 20260504002344 | 69 | 295 | 8.0 | 13.0 | 0.00 | 0.00 | 0.00 | 33 | 1004.6 |
| 20260504002245 | 69 | 293 | 8.0 | 13.0 | 0.00 | 0.00 | 0.00 | 33 | 1004.6 |
| 20260504002145 | 69 | 292 | 9.0 | 13.0 | 0.00 | 0.00 | 0.00 | 32 | 1004.6 |
| 20260504002044 | 69 | 291 | 8.0 | 13.0 | 0.00 | 0.00 | 0.00 | 33 | 1004.6 |
| 20260504001945 | 69 | 291 | 8.0 | 13.0 | 0.00 | 0.00 | 0.00 | 34 | 1004.7 |
| 20260504001845 | 69 | 292 | 8.0 | 13.0 | 0.00 | 0.00 | 0.00 | 33 | 1004.7 |
| 20260504001744 | 69 | 292 | 8.0 | 13.0 | 0.00 | 0.00 | 0.00 | 34 | 1004.7 |
| 20260504001645 | 69 | 293 | 8.0 | 13.0 | 0.00 | 0.00 | 0.00 | 34 | 1004.7 |
| 20260504001545 | 69 | 293 | 8.0 | 13.0 | 0.00 | 0.00 | 0.00 | 33 | 1004.6 |
| 20260504001444 | 69 | 293 | 8.0 | 13.0 | 0.00 | 0.00 | 0.00 | 34 | 1004.7 |
| 20260504001345 | 69 | 292 | 8.0 | 13.0 | 0.00 | 0.00 | 0.00 | 34 | 1004.7 |
| 20260504001245 | 69 | 294 | 8.0 | 12.0 | 0.00 | 0.00 | 0.00 | 33 | 1004.7 |
| 20260504001144 | 70 | 294 | 8.0 | 12.0 | 0.00 | 0.00 | 0.00 | 33 | 1004.7 |
| 20260504001044 | 70 | 293 | 8.0 | 12.0 | 0.00 | 0.00 | 0.00 | 34 | 1004.7 |
| 20260504000945 | 69 | 292 | 8.0 | 12.0 | 0.00 | 0.00 | 0.00 | 33 | 1004.6 |
| 20260504000845 | 69 | 290 | 9.0 | 12.0 | 0.00 | 0.00 | 0.00 | 33 | 1004.7 |
| 20260504000744 | 69 | 290 | 9.0 | 12.0 | 0.00 | 0.00 | 0.00 | 34 | 1004.7 |
| 20260504000645 | 69 | 290 | 9.0 | 12.0 | 0.00 | 0.00 | 0.00 | 34 | 1004.7 |
| 20260504000545 | 69 | 289 | 9.0 | 13.0 | 0.00 | 0.00 | 0.00 | 34 | 1004.7 |
| 20260504000445 | 69 | 288 | 9.0 | 14.0 | 0.00 | 0.00 | 0.00 | 33 | 1004.7 |
| 20260504000346 | 69 | 287 | 9.0 | 14.0 | 0.00 | 0.00 | 0.00 | 33 | 1004.7 |
| 20260504000245 | 69 | 286 | 10.0 | 14.0 | 0.00 | 0.00 | 0.00 | 33 | 1004.7 |
| 20260504000145 | 69 | 287 | 10.0 | 14.0 | 0.00 | 0.00 | 0.00 | 33 | 1004.6 |
| 20260504000045 | 69 | 288 | 10.0 | 15.0 | 0.00 | 0.00 | 0.00 | 33 | 1004.6 |
| 20260503235944 | 69 | 291 | 10.0 | 15.0 | 0.00 | 0.00 | 0.00 | 33 | 1004.6 |
| 20260503235844 | 69 | 293 | 10.0 | 15.0 | 0.00 | 0.00 | 0.00 | 33 | 1004.6 |
| 20260503235745 | 69 | 294 | 10.0 | 15.0 | 0.00 | 0.00 | 0.00 | 33 | 1004.7 |
| 20260503235645 | 70 | 295 | 10.0 | 15.0 | 0.00 | 0.00 | 0.00 | 32 | 1004.7 |
| 20260503235545 | 70 | 297 | 10.0 | 15.0 | 0.00 | 0.00 | 0.00 | 33 | 1004.7 |
| 20260503235444 | 70 | 299 | 9.0 | 15.0 | 0.00 | 0.00 | 0.00 | 33 | 1004.6 |
| 20260503235344 | 70 | 302 | 9.0 | 15.0 | 0.00 | 0.00 | 0.00 | 33 | 1004.6 |
| 20260503235245 | 70 | 303 | 8.0 | 15.0 | 0.00 | 0.00 | 0.00 | 33 | 1004.7 |
| 20260503235144 | 70 | 305 | 8.0 | 15.0 | 0.00 | 0.00 | 0.00 | 33 | 1004.7 |
| 20260503235044 | 70 | 307 | 8.0 | 15.0 | 0.00 | 0.00 | 0.00 | 33 | 1004.7 |
| 20260503234945 | 70 | 305 | 8.0 | 15.0 | 0.00 | 0.00 | 0.00 | 33 | 1004.6 |
| 20260503234844 | 70 | 303 | 8.0 | 15.0 | 0.00 | 0.00 | 0.00 | 33 | 1004.6 |
| 20260503234744 | 70 | 303 | 8.0 | 15.0 | 0.00 | 0.00 | 0.00 | 33 | 1004.7 |
| 20260503234644 | 70 | 301 | 8.0 | 15.0 | 0.00 | 0.00 | 0.00 | 33 | 1004.6 |
| 20260503234546 | 70 | 300 | 8.0 | 14.0 | 0.00 | 0.00 | 0.00 | 34 | 1004.6 |
| 20260503234445 | 70 | 299 | 9.0 | 14.0 | 0.00 | 0.00 | 0.00 | 33 | 1004.7 |
| 20260503234344 | 71 | 298 | 9.0 | 14.0 | 0.00 | 0.00 | 0.00 | 33 | 1004.7 |
| 20260503234245 | 71 | 300 | 9.0 | 14.0 | 0.00 | 0.00 | 0.00 | 33 | 1004.7 |
| 20260503234144 | 71 | 299 | 8.0 | 14.0 | 0.00 | 0.00 | 0.00 | 33 | 1004.8 |
| 20260503234045 | 71 | 298 | 8.0 | 14.0 | 0.00 | 0.00 | 0.00 | 33 | 1004.7 |
| 20260503233944 | 71 | 296 | 8.0 | 14.0 | 0.00 | 0.00 | 0.00 | 33 | 1004.7 |
| 20260503233844 | 71 | 298 | 8.0 | 14.0 | 0.00 | 0.00 | 0.00 | 33 | 1004.7 |
| 20260503233744 | 71 | 299 | 8.0 | 14.0 | 0.00 | 0.00 | 0.00 | 33 | 1004.7 |
| 20260503233645 | 71 | 301 | 7.0 | 12.0 | 0.00 | 0.00 | 0.00 | 34 | 1004.7 |
| 20260503233545 | 71 | 303 | 7.0 | 14.0 | 0.00 | 0.00 | 0.00 | 33 | 1004.7 |
| 20260503233444 | 71 | 307 | 7.0 | 14.0 | 0.00 | 0.00 | 0.00 | 32 | 1004.7 |
| 20260503233344 | 71 | 313 | 7.0 | 14.0 | 0.00 | 0.00 | 0.00 | 33 | 1004.7 |
| 20260503233245 | 71 | 315 | 7.0 | 14.0 | 0.00 | 0.00 | 0.00 | 33 | 1004.7 |
| 20260503233145 | 71 | 319 | 8.0 | 14.0 | 0.00 | 0.00 | 0.00 | 33 | 1004.8 |
| 20260503233044 | 71 | 323 | 7.0 | 14.0 | 0.00 | 0.00 | 0.00 | 33 | 1004.8 |
| 20260503232944 | 71 | 326 | 8.0 | 14.0 | 0.00 | 0.00 | 0.00 | 34 | 1004.7 |
| 20260503232844 | 71 | 323 | 8.0 | 14.0 | 0.00 | 0.00 | 0.00 | 33 | 1004.8 |
| 20260503232745 | 71 | 322 | 8.0 | 14.0 | 0.00 | 0.00 | 0.00 | 33 | 1004.8 |
| 20260503232644 | 71 | 324 | 8.0 | 14.0 | 0.00 | 0.00 | 0.00 | 33 | 1004.8 |
| 20260503232544 | 71 | 324 | 8.0 | 14.0 | 0.00 | 0.00 | 0.00 | 33 | 1004.8 |
| 20260503232444 | 71 | 323 | 7.0 | 14.0 | 0.00 | 0.00 | 0.00 | 32 | 1004.8 |
| 20260503232345 | 71 | 317 | 7.0 | 14.0 | 0.00 | 0.00 | 0.00 | 32 | 1004.7 |
| 20260503232244 | 71 | 313 | 7.0 | 14.0 | 0.00 | 0.00 | 0.00 | 32 | 1004.7 |
| 20260503232144 | 71 | 307 | 7.0 | 14.0 | 0.00 | 0.00 | 0.00 | 32 | 1004.8 |
| 20260503232045 | 71 | 305 | 7.0 | 14.0 | 0.00 | 0.00 | 0.00 | 32 | 1004.8 |
| 20260503231944 | 71 | 304 | 7.0 | 14.0 | 0.00 | 0.00 | 0.00 | 32 | 1004.8 |
| 20260503231844 | 71 | 305 | 7.0 | 14.0 | 0.00 | 0.00 | 0.00 | 32 | 1004.9 |
| 20260503231744 | 71 | 305 | 7.0 | 14.0 | 0.00 | 0.00 | 0.00 | 31 | 1004.8 |
| 20260503231645 | 71 | 303 | 7.0 | 14.0 | 0.00 | 0.00 | 0.00 | 31 | 1004.8 |
| 20260503231544 | 71 | 302 | 7.0 | 14.0 | 0.00 | 0.00 | 0.00 | 32 | 1004.8 |
| 20260503231444 | 71 | 302 | 7.0 | 14.0 | 0.00 | 0.00 | 0.00 | 32 | 1004.9 |
| 20260503231345 | 71 | 302 | 7.0 | 14.0 | 0.00 | 0.00 | 0.00 | 32 | 1004.8 |
| 20260503231244 | 71 | 302 | 7.0 | 14.0 | 0.00 | 0.00 | 0.00 | 31 | 1004.9 |
| 20260503231144 | 71 | 305 | 7.0 | 14.0 | 0.00 | 0.00 | 0.00 | 31 | 1004.9 |
| 20260503231045 | 71 | 308 | 7.0 | 14.0 | 0.00 | 0.00 | 0.00 | 32 | 1004.8 |
| 20260503230944 | 71 | 307 | 7.0 | 14.0 | 0.00 | 0.00 | 0.00 | 32 | 1004.8 |
| 20260503230845 | 71 | 308 | 7.0 | 13.0 | 0.00 | 0.00 | 0.00 | 32 | 1004.8 |
| 20260503230744 | 71 | 308 | 7.0 | 13.0 | 0.00 | 0.00 | 0.00 | 32 | 1004.8 |
| 20260503230645 | 71 | 309 | 7.0 | 13.0 | 0.00 | 0.00 | 0.00 | 33 | 1004.8 |
| 20260503230544 | 71 | 311 | 7.0 | 13.0 | 0.00 | 0.00 | 0.00 | 32 | 1004.8 |
| 20260503230445 | 71 | 315 | 7.0 | 13.0 | 0.00 | 0.00 | 0.00 | 32 | 1004.8 |
| 20260503230345 | 71 | 321 | 7.0 | 15.0 | 0.00 | 0.00 | 0.00 | 31 | 1004.8 |
| 20260503230244 | 71 | 324 | 8.0 | 16.0 | 0.00 | 0.00 | 0.00 | 30 | 1004.8 |
| 20260503230144 | 71 | 321 | 8.0 | 16.0 | 0.00 | 0.00 | 0.00 | 31 | 1004.8 |
| 20260503230045 | 71 | 316 | 8.0 | 16.0 | 0.00 | 0.00 | 0.00 | 32 | 1004.8 |
| 20260503225944 | 71 | 316 | 8.0 | 16.0 | 0.00 | 0.00 | 0.00 | 32 | 1004.8 |
| 20260503225844 | 71 | 316 | 9.0 | 16.0 | 0.00 | 0.00 | 0.00 | 32 | 1004.8 |
| 20260503225744 | 71 | 318 | 9.0 | 16.0 | 0.00 | 0.00 | 0.00 | 31 | 1004.8 |
| 20260503225645 | 71 | 317 | 9.0 | 16.0 | 0.00 | 0.00 | 0.00 | 30 | 1004.8 |
| 20260503225544 | 71 | 313 | 10.0 | 16.0 | 0.00 | 0.00 | 0.00 | 30 | 1004.8 |
| 20260503225444 | 71 | 309 | 10.0 | 16.0 | 0.00 | 0.00 | 0.00 | 30 | 1004.8 |
| 20260503225344 | 71 | 306 | 10.0 | 16.0 | 0.00 | 0.00 | 0.00 | 30 | 1004.8 |
| 20260503225245 | 71 | 305 | 10.0 | 16.0 | 0.00 | 0.00 | 0.00 | 31 | 1004.8 |
| 20260503225144 | 71 | 308 | 10.0 | 16.0 | 0.00 | 0.00 | 0.00 | 30 | 1004.8 |
| 20260503225044 | 72 | 312 | 10.0 | 16.0 | 0.00 | 0.00 | 0.00 | 31 | 1004.7 |
| 20260503224944 | 72 | 314 | 9.0 | 16.0 | 0.00 | 0.00 | 0.00 | 30 | 1004.8 |
| 20260503224844 | 72 | 317 | 9.0 | 16.0 | 0.00 | 0.00 | 0.00 | 30 | 1004.8 |
| 20260503224744 | 72 | 318 | 9.0 | 15.0 | 0.00 | 0.00 | 0.00 | 30 | 1004.7 |
| 20260503224644 | 72 | 321 | 8.0 | 15.0 | 0.00 | 0.00 | 0.00 | 30 | 1004.7 |
| 20260503224545 | 72 | 327 | 8.0 | 15.0 | 0.00 | 0.00 | 0.00 | 30 | 1004.8 |
| 20260503224444 | 72 | 331 | 8.0 | 15.0 | 0.00 | 0.00 | 0.00 | 30 | 1004.7 |
| 20260503224344 | 71 | 336 | 7.0 | 14.0 | 0.00 | 0.00 | 0.00 | 30 | 1004.7 |
| 20260503224244 | 71 | 333 | 7.0 | 14.0 | 0.00 | 0.00 | 0.00 | 31 | 1004.8 |
| 20260503224145 | 71 | 328 | 7.0 | 14.0 | 0.00 | 0.00 | 0.00 | 32 | 1004.8 |
| 20260503224044 | 71 | 321 | 8.0 | 17.0 | 0.00 | 0.00 | 0.00 | 30 | 1004.8 |
| 20260503223944 | 71 | 317 | 8.0 | 17.0 | 0.00 | 0.00 | 0.00 | 30 | 1004.7 |
| 20260503223845 | 71 | 313 | 8.0 | 17.0 | 0.00 | 0.00 | 0.00 | 32 | 1004.8 |
| 20260503223744 | 72 | 313 | 8.0 | 17.0 | 0.00 | 0.00 | 0.00 | 31 | 1004.8 |
| 20260503223644 | 72 | 312 | 8.0 | 17.0 | 0.00 | 0.00 | 0.00 | 31 | 1004.8 |
| 20260503223544 | 72 | 314 | 9.0 | 17.0 | 0.00 | 0.00 | 0.00 | 31 | 1004.8 |
| 20260503223445 | 72 | 315 | 9.0 | 17.0 | 0.00 | 0.00 | 0.00 | 32 | 1004.9 |
| 20260503223345 | 72 | 315 | 9.0 | 17.0 | 0.00 | 0.00 | 0.00 | 32 | 1004.8 |
| 20260503223244 | 72 | 319 | 9.0 | 17.0 | 0.00 | 0.00 | 0.00 | 31 | 1004.8 |
| 20260503223144 | 72 | 321 | 9.0 | 17.0 | 0.00 | 0.00 | 0.00 | 32 | 1004.9 |
| 20260503223045 | 72 | 324 | 9.0 | 17.0 | 0.00 | 0.00 | 0.00 | 31 | 1004.7 |
| 20260503222944 | 71 | 324 | 9.0 | 17.0 | 0.00 | 0.00 | 0.00 | 32 | 1004.8 |
| 20260503222845 | 71 | 322 | 9.0 | 17.0 | 0.00 | 0.00 | 0.00 | 32 | 1004.7 |
| 20260503222744 | 71 | 319 | 9.0 | 17.0 | 0.00 | 0.00 | 0.00 | 31 | 1004.7 |
| 20260503222644 | 71 | 316 | 10.0 | 17.0 | 0.00 | 0.00 | 0.00 | 30 | 1004.7 |
| 20260503222545 | 71 | 311 | 9.0 | 17.0 | 0.00 | 0.00 | 0.00 | 31 | 1004.7 |
| 20260503222444 | 71 | 311 | 9.0 | 17.0 | 0.00 | 0.00 | 0.00 | 32 | 1004.7 |
| 20260503222344 | 72 | 311 | 9.0 | 17.0 | 0.00 | 0.00 | 0.00 | 31 | 1004.7 |
| 20260503222244 | 72 | 310 | 9.0 | 17.0 | 0.00 | 0.00 | 0.00 | 32 | 1004.8 |
| 20260503222144 | 71 | 311 | 8.0 | 15.0 | 0.00 | 0.00 | 0.00 | 31 | 1004.8 |
| 20260503222044 | 71 | 311 | 8.0 | 15.0 | 0.00 | 0.00 | 0.00 | 31 | 1004.8 |
| 20260503221944 | 71 | 315 | 8.0 | 15.0 | 0.00 | 0.00 | 0.00 | 31 | 1004.8 |
| 20260503221845 | 71 | 322 | 8.0 | 16.0 | 0.00 | 0.00 | 0.00 | 32 | 1004.8 |
| 20260503221744 | 71 | 326 | 7.0 | 16.0 | 0.00 | 0.00 | 0.00 | 31 | 1004.8 |
| 20260503221644 | 71 | 332 | 7.0 | 16.0 | 0.00 | 0.00 | 0.00 | 32 | 1004.9 |
| 20260503221544 | 71 | 331 | 7.0 | 16.0 | 0.00 | 0.00 | 0.00 | 31 | 1004.8 |
| 20260503221444 | 71 | 328 | 7.0 | 16.0 | 0.00 | 0.00 | 0.00 | 30 | 1004.8 |
| 20260503221344 | 71 | 321 | 8.0 | 16.0 | 0.00 | 0.00 | 0.00 | 30 | 1004.8 |
| 20260503221245 | 71 | 316 | 8.0 | 16.0 | 0.00 | 0.00 | 0.00 | 30 | 1004.8 |
| 20260503221145 | 71 | 315 | 8.0 | 16.0 | 0.00 | 0.00 | 0.00 | 30 | 1004.8 |
| 20260503221044 | 71 | 317 | 8.0 | 16.0 | 0.00 | 0.00 | 0.00 | 31 | 1004.8 |
| 20260503220944 | 71 | 318 | 9.0 | 16.0 | 0.00 | 0.00 | 0.00 | 30 | 1004.8 |
| 20260503220844 | 71 | 317 | 9.0 | 14.0 | 0.00 | 0.00 | 0.00 | 30 | 1004.8 |
| 20260503220744 | 71 | 318 | 9.0 | 14.0 | 0.00 | 0.00 | 0.00 | 31 | 1004.8 |
| 20260503220644 | 71 | 320 | 10.0 | 15.0 | 0.00 | 0.00 | 0.00 | 32 | 1004.9 |
| 20260503220544 | 71 | 323 | 10.0 | 15.0 | 0.00 | 0.00 | 0.00 | 31 | 1004.8 |
| 20260503220444 | 71 | 325 | 9.0 | 15.0 | 0.00 | 0.00 | 0.00 | 31 | 1004.9 |
| 20260503220343 | 71 | 331 | 9.0 | 15.0 | 0.00 | 0.00 | 0.00 | 33 | 1004.9 |
| 20260503220244 | 70 | 333 | 9.0 | 15.0 | 0.00 | 0.00 | 0.00 | 30 | 1004.8 |
| 20260503220144 | 71 | 330 | 9.0 | 15.0 | 0.00 | 0.00 | 0.00 | 31 | 1004.8 |
| 20260503220044 | 71 | 325 | 9.0 | 15.0 | 0.00 | 0.00 | 0.00 | 30 | 1004.8 |
| 20260503215945 | 71 | 321 | 9.0 | 17.0 | 0.00 | 0.00 | 0.00 | 30 | 1004.8 |
| 20260503215844 | 71 | 314 | 9.0 | 17.0 | 0.00 | 0.00 | 0.00 | 30 | 1004.7 |
| 20260503215744 | 71 | 312 | 9.0 | 17.0 | 0.00 | 0.00 | 0.00 | 30 | 1004.8 |
| 20260503215644 | 71 | 307 | 8.0 | 17.0 | 0.00 | 0.00 | 0.00 | 30 | 1004.8 |
| 20260503215544 | 72 | 304 | 8.0 | 17.0 | 0.00 | 0.00 | 0.00 | 31 | 1004.8 |
| 20260503215444 | 72 | 301 | 9.0 | 17.0 | 0.00 | 0.00 | 0.00 | 31 | 1004.8 |
| 20260503215345 | 71 | 300 | 9.0 | 17.0 | 0.00 | 0.00 | 0.00 | 31 | 1004.8 |
| 20260503215244 | 72 | 299 | 10.0 | 17.0 | 0.00 | 0.00 | 0.00 | 30 | 1004.8 |
| 20260503215144 | 72 | 300 | 10.0 | 17.0 | 0.00 | 0.00 | 0.00 | 31 | 1004.8 |
| 20260503215044 | 72 | 300 | 10.0 | 17.0 | 0.00 | 0.00 | 0.00 | 30 | 1004.9 |
| 20260503214944 | 72 | 300 | 10.0 | 16.0 | 0.00 | 0.00 | 0.00 | 30 | 1004.9 |
| 20260503214843 | 72 | 302 | 10.0 | 16.0 | 0.00 | 0.00 | 0.00 | 30 | 1004.9 |
| 20260503214744 | 72 | 300 | 10.0 | 17.0 | 0.00 | 0.00 | 0.00 | 32 | 1004.8 |
| 20260503214645 | 72 | 299 | 11.0 | 17.0 | 0.00 | 0.00 | 0.00 | 31 | 1004.8 |
| 20260503214544 | 72 | 298 | 11.0 | 18.0 | 0.00 | 0.00 | 0.00 | 31 | 1004.9 |
| 20260503214444 | 71 | 298 | 11.0 | 18.0 | 0.00 | 0.00 | 0.00 | 31 | 1004.9 |
| 20260503214344 | 72 | 297 | 11.0 | 18.0 | 0.00 | 0.00 | 0.00 | 30 | 1004.9 |
| 20260503214244 | 72 | 297 | 11.0 | 18.0 | 0.00 | 0.00 | 0.00 | 31 | 1004.9 |
| 20260503214145 | 71 | 301 | 11.0 | 18.0 | 0.00 | 0.00 | 0.00 | 31 | 1004.9 |
| 20260503214044 | 71 | 304 | 11.0 | 18.0 | 0.00 | 0.00 | 0.00 | 31 | 1004.9 |
| 20260503213944 | 71 | 307 | 11.0 | 18.0 | 0.00 | 0.00 | 0.00 | 31 | 1004.9 |
| 20260503213844 | 71 | 310 | 10.0 | 18.0 | 0.00 | 0.00 | 0.00 | 31 | 1004.9 |
| 20260503213744 | 71 | 310 | 10.0 | 18.0 | 0.00 | 0.00 | 0.00 | 31 | 1004.8 |
| 20260503213644 | 71 | 313 | 9.0 | 18.0 | 0.00 | 0.00 | 0.00 | 30 | 1004.9 |
| 20260503213543 | 71 | 315 | 8.0 | 18.0 | 0.00 | 0.00 | 0.00 | 31 | 1004.9 |
| 20260503213444 | 71 | 319 | 8.0 | 18.0 | 0.00 | 0.00 | 0.00 | 31 | 1004.9 |
| 20260503213344 | 71 | 321 | 8.0 | 18.0 | 0.00 | 0.00 | 0.00 | 32 | 1004.9 |
| 20260503213244 | 71 | 323 | 8.0 | 18.0 | 0.00 | 0.00 | 0.00 | 30 | 1004.9 |
| 20260503213143 | 71 | 321 | 8.0 | 18.0 | 0.00 | 0.00 | 0.00 | 31 | 1004.9 |
| 20260503213044 | 71 | 319 | 8.0 | 18.0 | 0.00 | 0.00 | 0.00 | 31 | 1004.9 |
| 20260503212944 | 71 | 316 | 8.0 | 18.0 | 0.00 | 0.00 | 0.00 | 33 | 1004.9 |
| 20260503212844 | 71 | 317 | 8.0 | 18.0 | 0.00 | 0.00 | 0.00 | 32 | 1004.9 |
| 20260503212745 | 71 | 321 | 9.0 | 18.0 | 0.00 | 0.00 | 0.00 | 32 | 1004.8 |
| 20260503212644 | 71 | 324 | 9.0 | 18.0 | 0.00 | 0.00 | 0.00 | 32 | 1004.9 |
| 20260503212544 | 71 | 327 | 10.0 | 18.0 | 0.00 | 0.00 | 0.00 | 31 | 1005.0 |
| 20260503212444 | 71 | 329 | 10.0 | 18.0 | 0.00 | 0.00 | 0.00 | 31 | 1005.0 |
| 20260503212344 | 71 | 330 | 10.0 | 17.0 | 0.00 | 0.00 | 0.00 | 32 | 1005.0 |
| 20260503212244 | 71 | 332 | 10.0 | 17.0 | 0.00 | 0.00 | 0.00 | 32 | 1005.0 |
| 20260503212144 | 71 | 335 | 9.0 | 17.0 | 0.00 | 0.00 | 0.00 | 31 | 1005.0 |
| 20260503212044 | 70 | 337 | 10.0 | 17.0 | 0.00 | 0.00 | 0.00 | 32 | 1004.9 |
| 20260503211943 | 70 | 339 | 10.0 | 17.0 | 0.00 | 0.00 | 0.00 | 31 | 1004.9 |
| 20260503211844 | 70 | 338 | 10.0 | 17.0 | 0.00 | 0.00 | 0.00 | 31 | 1004.9 |
| 20260503211744 | 70 | 338 | 10.0 | 17.0 | 0.00 | 0.00 | 0.00 | 31 | 1004.9 |
| 20260503211644 | 70 | 338 | 10.0 | 17.0 | 0.00 | 0.00 | 0.00 | 30 | 1005.0 |
| 20260503211544 | 71 | 335 | 9.0 | 17.0 | 0.00 | 0.00 | 0.00 | 31 | 1004.9 |
| 20260503211444 | 70 | 332 | 9.0 | 17.0 | 0.00 | 0.00 | 0.00 | 32 | 1005.0 |
| 20260503211344 | 70 | 329 | 9.0 | 17.0 | 0.00 | 0.00 | 0.00 | 30 | 1005.0 |
| 20260503211243 | 70 | 329 | 9.0 | 17.0 | 0.00 | 0.00 | 0.00 | 30 | 1005.1 |
| 20260503211144 | 71 | 329 | 10.0 | 17.0 | 0.00 | 0.00 | 0.00 | 29 | 1005.0 |
| 20260503211045 | 71 | 325 | 9.0 | 17.0 | 0.00 | 0.00 | 0.00 | 31 | 1005.0 |
| 20260503210944 | 71 | 324 | 9.0 | 17.0 | 0.00 | 0.00 | 0.00 | 31 | 1005.0 |
| 20260503210844 | 71 | 325 | 9.0 | 18.0 | 0.00 | 0.00 | 0.00 | 31 | 1005.0 |
| 20260503210744 | 71 | 327 | 10.0 | 18.0 | 0.00 | 0.00 | 0.00 | 30 | 1005.1 |
| 20260503210644 | 71 | 329 | 10.0 | 20.0 | 0.00 | 0.00 | 0.00 | 31 | 1005.1 |
| 20260503210544 | 71 | 334 | 11.0 | 20.0 | 0.00 | 0.00 | 0.00 | 30 | 1005.1 |
| 20260503210444 | 71 | 336 | 11.0 | 20.0 | 0.00 | 0.00 | 0.00 | 31 | 1005.1 |
| 20260503210344 | 70 | 339 | 11.0 | 20.0 | 0.00 | 0.00 | 0.00 | 30 | 1005.1 |
| 20260503210244 | 70 | 339 | 11.0 | 20.0 | 0.00 | 0.00 | 0.00 | 29 | 1005.1 |
| 20260503210144 | 70 | 338 | 10.0 | 20.0 | 0.00 | 0.00 | 0.00 | 30 | 1005.1 |
| 20260503210044 | 70 | 340 | 10.0 | 20.0 | 0.00 | 0.00 | 0.00 | 30 | 1005.2 |
| 20260503205944 | 70 | 340 | 11.0 | 20.0 | 0.00 | 0.00 | 0.00 | 30 | 1005.2 |
| 20260503205844 | 70 | 340 | 11.0 | 20.0 | 0.00 | 0.00 | 0.00 | 30 | 1005.2 |
| 20260503205744 | 70 | 335 | 11.0 | 20.0 | 0.00 | 0.00 | 0.00 | 30 | 1005.3 |
| 20260503205643 | 70 | 329 | 11.0 | 18.0 | 0.00 | 0.00 | 0.00 | 30 | 1005.2 |
| 20260503205543 | 70 | 323 | 11.0 | 19.0 | 0.00 | 0.00 | 0.00 | 30 | 1005.2 |
| 20260503205444 | 71 | 321 | 10.0 | 19.0 | 0.00 | 0.00 | 0.00 | 30 | 1005.2 |
| 20260503205344 | 71 | 321 | 10.0 | 19.0 | 0.00 | 0.00 | 0.00 | 31 | 1005.3 |
| 20260503205244 | 71 | 322 | 11.0 | 21.0 | 0.00 | 0.00 | 0.00 | 29 | 1005.4 |
| 20260503205143 | 71 | 323 | 12.0 | 22.0 | 0.00 | 0.00 | 0.00 | 30 | 1005.4 |
| 20260503205044 | 71 | 323 | 12.0 | 22.0 | 0.00 | 0.00 | 0.00 | 30 | 1005.4 |
| 20260503204944 | 71 | 323 | 11.0 | 22.0 | 0.00 | 0.00 | 0.00 | 31 | 1005.4 |
| 20260503204845 | 71 | 320 | 12.0 | 22.0 | 0.00 | 0.00 | 0.00 | 31 | 1005.3 |
| 20260503204744 | 71 | 323 | 11.0 | 22.0 | 0.00 | 0.00 | 0.00 | 31 | 1005.3 |
| 20260503204643 | 70 | 327 | 11.0 | 22.0 | 0.00 | 0.00 | 0.00 | 33 | 1005.4 |
| 20260503204544 | 70 | 331 | 11.0 | 22.0 | 0.00 | 0.00 | 0.00 | 33 | 1005.5 |
| 20260503204444 | 70 | 328 | 11.0 | 22.0 | 0.00 | 0.00 | 0.00 | 31 | 1005.4 |
| 20260503204344 | 70 | 323 | 11.0 | 22.0 | 0.00 | 0.00 | 0.00 | 31 | 1005.3 |
| 20260503204244 | 70 | 322 | 11.0 | 22.0 | 0.00 | 0.00 | 0.00 | 32 | 1005.3 |
| 20260503204144 | 70 | 318 | 11.0 | 21.0 | 0.00 | 0.00 | 0.00 | 32 | 1005.3 |
| 20260503204044 | 71 | 317 | 12.0 | 21.0 | 0.00 | 0.00 | 0.00 | 31 | 1005.5 |
| 20260503203944 | 71 | 318 | 12.0 | 21.0 | 0.00 | 0.00 | 0.00 | 33 | 1005.5 |
| 20260503203844 | 71 | 322 | 12.0 | 20.0 | 0.00 | 0.00 | 0.00 | 32 | 1005.5 |
| 20260503203744 | 71 | 322 | 12.0 | 20.0 | 0.00 | 0.00 | 0.00 | 31 | 1005.5 |
| 20260503203643 | 71 | 323 | 12.0 | 20.0 | 0.00 | 0.00 | 0.00 | 31 | 1005.5 |
| 20260503203544 | 71 | 323 | 12.0 | 20.0 | 0.00 | 0.00 | 0.00 | 31 | 1005.5 |
| 20260503203444 | 71 | 327 | 12.0 | 20.0 | 0.00 | 0.00 | 0.00 | 32 | 1005.5 |
| 20260503203343 | 70 | 331 | 11.0 | 19.0 | 0.00 | 0.00 | 0.00 | 32 | 1005.5 |
| 20260503203243 | 70 | 331 | 11.0 | 19.0 | 0.00 | 0.00 | 0.00 | 31 | 1005.6 |
| 20260503203144 | 70 | 333 | 10.0 | 18.0 | 0.00 | 0.00 | 0.00 | 32 | 1005.5 |
| 20260503203044 | 70 | 334 | 10.0 | 18.0 | 0.00 | 0.00 | 0.00 | 32 | 1005.4 |
| 20260503202944 | 70 | 331 | 10.0 | 18.0 | 0.00 | 0.00 | 0.00 | 32 | 1005.5 |
| 20260503202843 | 70 | 331 | 10.0 | 20.0 | 0.00 | 0.00 | 0.00 | 34 | 1005.5 |
| 20260503202745 | 70 | 331 | 10.0 | 20.0 | 0.00 | 0.00 | 0.00 | 33 | 1005.5 |
| 20260503202644 | 70 | 331 | 11.0 | 20.0 | 0.00 | 0.00 | 0.00 | 33 | 1005.5 |
| 20260503202543 | 70 | 331 | 11.0 | 20.0 | 0.00 | 0.00 | 0.00 | 32 | 1005.5 |
| 20260503202443 | 70 | 331 | 12.0 | 20.0 | 0.00 | 0.00 | 0.00 | 33 | 1005.5 |
| 20260503202344 | 70 | 327 | 12.0 | 21.0 | 0.00 | 0.00 | 0.00 | 34 | 1005.5 |
| 20260503202244 | 70 | 327 | 12.0 | 21.0 | 0.00 | 0.00 | 0.00 | 33 | 1005.6 |
| 20260503202144 | 70 | 328 | 12.0 | 21.0 | 0.00 | 0.00 | 0.00 | 32 | 1005.6 |
| 20260503202043 | 70 | 326 | 12.0 | 21.0 | 0.00 | 0.00 | 0.00 | 32 | 1005.7 |
| 20260503201945 | 70 | 326 | 12.0 | 21.0 | 0.00 | 0.00 | 0.00 | 32 | 1005.6 |
| 20260503201844 | 70 | 321 | 11.0 | 21.0 | 0.00 | 0.00 | 0.00 | 31 | 1005.5 |
| 20260503201744 | 70 | 322 | 11.0 | 21.0 | 0.00 | 0.00 | 0.00 | 31 | 1005.5 |
| 20260503201643 | 71 | 323 | 11.0 | 21.0 | 0.00 | 0.00 | 0.00 | 31 | 1005.5 |
| 20260503201544 | 71 | 323 | 11.0 | 21.0 | 0.00 | 0.00 | 0.00 | 30 | 1005.6 |
| 20260503201444 | 71 | 324 | 11.0 | 21.0 | 0.00 | 0.00 | 0.00 | 32 | 1005.6 |
| 20260503201344 | 71 | 329 | 10.0 | 19.0 | 0.00 | 0.00 | 0.00 | 31 | 1005.6 |
| 20260503201243 | 71 | 331 | 11.0 | 19.0 | 0.00 | 0.00 | 0.00 | 32 | 1005.6 |
| 20260503201144 | 71 | 330 | 11.0 | 19.0 | 0.00 | 0.00 | 0.00 | 33 | 1005.7 |
| 20260503201044 | 71 | 333 | 11.0 | 19.0 | 0.00 | 0.00 | 0.00 | 34 | 1005.7 |
| 20260503200943 | 70 | 334 | 11.0 | 19.0 | 0.00 | 0.00 | 0.00 | 33 | 1005.7 |
| 20260503200843 | 70 | 335 | 10.0 | 19.0 | 0.00 | 0.00 | 0.00 | 31 | 1005.7 |
| 20260503200744 | 70 | 331 | 10.0 | 19.0 | 0.00 | 0.00 | 0.00 | 32 | 1005.7 |
| 20260503200644 | 70 | 325 | 10.0 | 19.0 | 0.00 | 0.00 | 0.00 | 33 | 1005.6 |
| 20260503200543 | 70 | 325 | 9.0 | 19.0 | 0.00 | 0.00 | 0.00 | 31 | 1005.5 |
| 20260503200444 | 71 | 323 | 9.0 | 16.0 | 0.00 | 0.00 | 0.00 | 31 | 1005.5 |
| 20260503200344 | 71 | 323 | 9.0 | 16.0 | 0.00 | 0.00 | 0.00 | 33 | 1005.6 |
| 20260503200243 | 71 | 323 | 9.0 | 16.0 | 0.00 | 0.00 | 0.00 | 32 | 1005.5 |
| 20260503200144 | 71 | 324 | 9.0 | 16.0 | 0.00 | 0.00 | 0.00 | 33 | 1005.5 |
| 20260503200044 | 70 | 325 | 9.0 | 16.0 | 0.00 | 0.00 | 0.00 | 35 | 1005.5 |
| 20260503195943 | 70 | 326 | 9.0 | 16.0 | 0.00 | 0.00 | 0.00 | 35 | 1005.5 |
| 20260503195843 | 70 | 332 | 9.0 | 19.0 | 0.00 | 0.00 | 0.00 | 35 | 1005.6 |
| 20260503195743 | 70 | 335 | 10.0 | 21.0 | 0.00 | 0.00 | 0.00 | 34 | 1005.5 |
| 20260503195644 | 70 | 338 | 10.0 | 21.0 | 0.00 | 0.00 | 0.00 | 36 | 1005.6 |
| 20260503195543 | 70 | 335 | 10.0 | 21.0 | 0.00 | 0.00 | 0.00 | 35 | 1005.5 |
| 20260503195443 | 70 | 331 | 10.0 | 21.0 | 0.00 | 0.00 | 0.00 | 35 | 1005.6 |
| 20260503195343 | 70 | 326 | 11.0 | 21.0 | 0.00 | 0.00 | 0.00 | 34 | 1005.6 |
| 20260503195244 | 70 | 321 | 11.0 | 21.0 | 0.00 | 0.00 | 0.00 | 34 | 1005.7 |
| 20260503195144 | 70 | 316 | 11.0 | 21.0 | 0.00 | 0.00 | 0.00 | 34 | 1005.7 |
| 20260503195043 | 70 | 312 | 11.0 | 21.0 | 0.00 | 0.00 | 0.00 | 34 | 1005.8 |
| 20260503194943 | 71 | 307 | 11.0 | 21.0 | 0.00 | 0.00 | 0.00 | 33 | 1005.8 |
| 20260503194844 | 71 | 301 | 11.0 | 21.0 | 0.00 | 0.00 | 0.00 | 33 | 1005.7 |
| 20260503194744 | 71 | 296 | 11.0 | 21.0 | 0.00 | 0.00 | 0.00 | 34 | 1005.7 |
| 20260503194643 | 71 | 296 | 11.0 | 21.0 | 0.00 | 0.00 | 0.00 | 34 | 1005.7 |
| 20260503194543 | 71 | 300 | 11.0 | 21.0 | 0.00 | 0.00 | 0.00 | 34 | 1005.7 |
| 20260503194444 | 70 | 300 | 11.0 | 21.0 | 0.00 | 0.00 | 0.00 | 35 | 1005.7 |
| 20260503194344 | 70 | 300 | 11.0 | 21.0 | 0.00 | 0.00 | 0.00 | 36 | 1005.7 |
| 20260503194243 | 70 | 303 | 10.0 | 20.0 | 0.00 | 0.00 | 0.00 | 36 | 1005.8 |
| 20260503194143 | 70 | 308 | 10.0 | 20.0 | 0.00 | 0.00 | 0.00 | 35 | 1005.8 |
| 20260503194043 | 70 | 314 | 10.0 | 20.0 | 0.00 | 0.00 | 0.00 | 34 | 1005.8 |
| 20260503193944 | 70 | 320 | 10.0 | 20.0 | 0.00 | 0.00 | 0.00 | 35 | 1005.9 |
| 20260503193844 | 70 | 326 | 10.0 | 20.0 | 0.00 | 0.00 | 0.00 | 35 | 1005.9 |
| 20260503193743 | 70 | 331 | 11.0 | 20.0 | 0.00 | 0.00 | 0.00 | 35 | 1005.8 |
| 20260503193644 | 70 | 333 | 11.0 | 21.0 | 0.00 | 0.00 | 0.00 | 35 | 1005.8 |
| 20260503193544 | 70 | 332 | 11.0 | 24.0 | 0.00 | 0.00 | 0.00 | 37 | 1005.8 |
| 20260503193443 | 70 | 331 | 11.0 | 24.0 | 0.00 | 0.00 | 0.00 | 36 | 1005.8 |
| 20260503193343 | 70 | 330 | 11.0 | 24.0 | 0.00 | 0.00 | 0.00 | 33 | 1005.8 |
| 20260503193244 | 70 | 330 | 11.0 | 24.0 | 0.00 | 0.00 | 0.00 | 34 | 1005.8 |
| 20260503193143 | 70 | 329 | 12.0 | 24.0 | 0.00 | 0.00 | 0.00 | 36 | 1005.8 |
| 20260503193043 | 70 | 327 | 12.0 | 24.0 | 0.00 | 0.00 | 0.00 | 35 | 1005.8 |
| 20260503192944 | 70 | 324 | 12.0 | 24.0 | 0.00 | 0.00 | 0.00 | 35 | 1005.9 |
| 20260503192843 | 70 | 320 | 12.0 | 24.0 | 0.00 | 0.00 | 0.00 | 36 | 1005.8 |
| 20260503192743 | 70 | 318 | 11.0 | 24.0 | 0.00 | 0.00 | 0.00 | 34 | 1005.9 |
| 20260503192644 | 70 | 318 | 10.0 | 24.0 | 0.00 | 0.00 | 0.00 | 35 | 1005.8 |
| 20260503192544 | 70 | 319 | 10.0 | 20.0 | 0.00 | 0.00 | 0.00 | 36 | 1005.9 |
| 20260503192443 | 70 | 321 | 10.0 | 20.0 | 0.00 | 0.00 | 0.00 | 35 | 1005.9 |
| 20260503192343 | 70 | 324 | 10.0 | 20.0 | 0.00 | 0.00 | 0.00 | 35 | 1005.9 |
| 20260503192244 | 70 | 326 | 10.0 | 20.0 | 0.00 | 0.00 | 0.00 | 35 | 1005.9 |
| 20260503192143 | 70 | 324 | 10.0 | 20.0 | 0.00 | 0.00 | 0.00 | 35 | 1005.9 |
| 20260503192043 | 70 | 326 | 10.0 | 20.0 | 0.00 | 0.00 | 0.00 | 36 | 1005.9 |
| 20260503191943 | 70 | 330 | 10.0 | 18.0 | 0.00 | 0.00 | 0.00 | 37 | 1005.8 |
| 20260503191844 | 70 | 330 | 10.0 | 18.0 | 0.00 | 0.00 | 0.00 | 36 | 1005.8 |
| 20260503191743 | 70 | 330 | 10.0 | 18.0 | 0.00 | 0.00 | 0.00 | 36 | 1005.9 |
| 20260503191643 | 70 | 330 | 10.0 | 18.0 | 0.00 | 0.00 | 0.00 | 36 | 1005.9 |
| 20260503191545 | 70 | 330 | 10.0 | 18.0 | 0.00 | 0.00 | 0.00 | 37 | 1006.0 |
| 20260503191444 | 70 | 331 | 10.0 | 18.0 | 0.00 | 0.00 | 0.00 | 36 | 1006.0 |
| 20260503191343 | 70 | 332 | 10.0 | 18.0 | 0.00 | 0.00 | 0.00 | 36 | 1006.0 |
| 20260503191243 | 70 | 332 | 10.0 | 18.0 | 0.00 | 0.00 | 0.00 | 38 | 1006.0 |
| 20260503191144 | 70 | 335 | 10.0 | 18.0 | 0.00 | 0.00 | 0.00 | 36 | 1006.0 |
| 20260503191044 | 70 | 334 | 10.0 | 18.0 | 0.00 | 0.00 | 0.00 | 36 | 1005.9 |
| 20260503190943 | 70 | 334 | 10.0 | 18.0 | 0.00 | 0.00 | 0.00 | 38 | 1005.9 |
| 20260503190843 | 69 | 338 | 10.0 | 18.0 | 0.00 | 0.00 | 0.00 | 38 | 1005.9 |
| 20260503190744 | 69 | 339 | 10.0 | 18.0 | 0.00 | 0.00 | 0.00 | 38 | 1005.9 |
| 20260503190643 | 69 | 339 | 10.0 | 18.0 | 0.00 | 0.00 | 0.00 | 38 | 1005.9 |
| 20260503190543 | 69 | 339 | 10.0 | 18.0 | 0.00 | 0.00 | 0.00 | 38 | 1006.0 |
| 20260503190443 | 69 | 339 | 10.0 | 18.0 | 0.00 | 0.00 | 0.00 | 40 | 1006.0 |
| 20260503190344 | 69 | 340 | 10.0 | 18.0 | 0.00 | 0.00 | 0.00 | 37 | 1006.0 |
| 20260503190243 | 70 | 338 | 10.0 | 18.0 | 0.00 | 0.00 | 0.00 | 38 | 1006.1 |
| 20260503190143 | 70 | 335 | 10.0 | 17.0 | 0.00 | 0.00 | 0.00 | 38 | 1006.0 |
| 20260503190043 | 70 | 334 | 9.0 | 17.0 | 0.00 | 0.00 | 0.00 | 38 | 1005.8 |
| 20260503185944 | 70 | 332 | 9.0 | 16.0 | 0.00 | 0.00 | 0.00 | 40 | 1005.8 |
| 20260503185844 | 69 | 330 | 8.0 | 16.0 | 0.00 | 0.00 | 0.00 | 39 | 1005.8 |
| 20260503185743 | 70 | 326 | 9.0 | 16.0 | 0.00 | 0.00 | 0.00 | 38 | 1005.8 |
| 20260503185644 | 70 | 325 | 9.0 | 16.0 | 0.00 | 0.00 | 0.00 | 38 | 1005.9 |
| 20260503185544 | 70 | 327 | 9.0 | 16.0 | 0.00 | 0.00 | 0.00 | 36 | 1005.8 |
| 20260503185443 | 70 | 326 | 8.0 | 16.0 | 0.00 | 0.00 | 0.00 | 38 | 1005.9 |
| 20260503185343 | 70 | 326 | 8.0 | 16.0 | 0.00 | 0.00 | 0.00 | 40 | 1005.9 |
| 20260503185244 | 70 | 329 | 9.0 | 20.0 | 0.00 | 0.00 | 0.00 | 40 | 1005.9 |
| 20260503185143 | 70 | 331 | 10.0 | 20.0 | 0.00 | 0.00 | 0.00 | 38 | 1005.9 |
| 20260503185043 | 70 | 334 | 10.0 | 20.0 | 0.00 | 0.00 | 0.00 | 39 | 1005.9 |
| 20260503184943 | 70 | 335 | 10.0 | 20.0 | 0.00 | 0.00 | 0.00 | 38 | 1005.9 |
| 20260503184844 | 70 | 338 | 11.0 | 20.0 | 0.00 | 0.00 | 0.00 | 39 | 1005.9 |
| 20260503184743 | 70 | 341 | 10.0 | 20.0 | 0.00 | 0.00 | 0.00 | 38 | 1005.8 |
| 20260503184644 | 70 | 341 | 11.0 | 20.0 | 0.00 | 0.00 | 0.00 | 38 | 1005.8 |
| 20260503184544 | 69 | 341 | 11.0 | 20.0 | 0.00 | 0.00 | 0.00 | 38 | 1005.9 |
| 20260503184443 | 69 | 341 | 11.0 | 20.0 | 0.00 | 0.00 | 0.00 | 37 | 1005.8 |
| 20260503184344 | 69 | 340 | 11.0 | 20.0 | 0.00 | 0.00 | 0.00 | 36 | 1005.8 |
| 20260503184243 | 69 | 339 | 10.0 | 19.0 | 0.00 | 0.00 | 0.00 | 36 | 1005.8 |
| 20260503184143 | 69 | 341 | 10.0 | 21.0 | 0.00 | 0.00 | 0.00 | 38 | 1005.8 |
| 20260503184044 | 69 | 339 | 10.0 | 21.0 | 0.00 | 0.00 | 0.00 | 39 | 1005.9 |
| 20260503183943 | 69 | 338 | 10.0 | 21.0 | 0.00 | 0.00 | 0.00 | 38 | 1005.9 |
| 20260503183843 | 69 | 337 | 11.0 | 21.0 | 0.00 | 0.00 | 0.00 | 38 | 1005.9 |
| 20260503183744 | 69 | 338 | 11.0 | 21.0 | 0.00 | 0.00 | 0.00 | 38 | 1006.0 |
| 20260503183643 | 69 | 336 | 11.0 | 21.0 | 0.00 | 0.00 | 0.00 | 38 | 1006.0 |
| 20260503183543 | 70 | 335 | 11.0 | 21.0 | 0.00 | 0.00 | 0.00 | 37 | 1005.9 |
| 20260503183444 | 70 | 335 | 11.0 | 21.0 | 0.00 | 0.00 | 0.00 | 39 | 1005.9 |
| 20260503183343 | 69 | 335 | 11.0 | 21.0 | 0.00 | 0.00 | 0.00 | 39 | 1005.9 |
| 20260503183243 | 69 | 336 | 11.0 | 21.0 | 0.00 | 0.00 | 0.00 | 38 | 1006.0 |
| 20260503183144 | 69 | 335 | 11.0 | 19.0 | 0.00 | 0.00 | 0.00 | 38 | 1005.9 |
| 20260503183043 | 69 | 335 | 11.0 | 19.0 | 0.00 | 0.00 | 0.00 | 38 | 1005.9 |
| 20260503182943 | 69 | 337 | 11.0 | 19.0 | 0.00 | 0.00 | 0.00 | 37 | 1006.0 |
| 20260503182844 | 69 | 337 | 11.0 | 19.0 | 0.00 | 0.00 | 0.00 | 38 | 1006.0 |
| 20260503182744 | 69 | 338 | 11.0 | 19.0 | 0.00 | 0.00 | 0.00 | 37 | 1006.0 |
| 20260503182643 | 69 | 341 | 10.0 | 17.0 | 0.00 | 0.00 | 0.00 | 37 | 1006.0 |
| 20260503182543 | 69 | 342 | 10.0 | 17.0 | 0.00 | 0.00 | 0.00 | 37 | 1006.1 |
| 20260503182444 | 69 | 343 | 10.0 | 17.0 | 0.00 | 0.00 | 0.00 | 37 | 1006.1 |
| 20260503182344 | 69 | 344 | 10.0 | 17.0 | 0.00 | 0.00 | 0.00 | 38 | 1006.1 |
| 20260503182243 | 69 | 343 | 10.0 | 17.0 | 0.00 | 0.00 | 0.00 | 37 | 1006.0 |
| 20260503182144 | 69 | 344 | 10.0 | 18.0 | 0.00 | 0.00 | 0.00 | 39 | 1006.1 |
| 20260503182043 | 69 | 343 | 11.0 | 21.0 | 0.00 | 0.00 | 0.00 | 39 | 1006.1 |
| 20260503181943 | 69 | 342 | 11.0 | 22.0 | 0.00 | 0.00 | 0.00 | 38 | 1006.0 |
| 20260503181843 | 68 | 342 | 12.0 | 22.0 | 0.00 | 0.00 | 0.00 | 38 | 1005.9 |
| 20260503181743 | 68 | 340 | 13.0 | 22.0 | 0.00 | 0.00 | 0.00 | 40 | 1005.9 |
| 20260503181643 | 68 | 339 | 13.0 | 22.0 | 0.00 | 0.00 | 0.00 | 38 | 1006.1 |
| 20260503181543 | 68 | 339 | 13.0 | 22.0 | 0.00 | 0.00 | 0.00 | 38 | 1006.1 |
| 20260503181443 | 68 | 337 | 13.0 | 22.0 | 0.00 | 0.00 | 0.00 | 37 | 1006.1 |
| 20260503181343 | 68 | 337 | 13.0 | 22.0 | 0.00 | 0.00 | 0.00 | 37 | 1006.2 |
| 20260503181243 | 68 | 337 | 14.0 | 22.0 | 0.00 | 0.00 | 0.00 | 36 | 1006.2 |
| 20260503181143 | 68 | 336 | 14.0 | 22.0 | 0.00 | 0.00 | 0.00 | 35 | 1006.2 |
| 20260503181043 | 68 | 335 | 13.0 | 22.0 | 0.00 | 0.00 | 0.00 | 35 | 1006.1 |
| 20260503180943 | 68 | 333 | 13.0 | 20.0 | 0.00 | 0.00 | 0.00 | 36 | 1006.2 |
| 20260503180843 | 68 | 333 | 12.0 | 19.0 | 0.00 | 0.00 | 0.00 | 37 | 1006.2 |
| 20260503180744 | 68 | 332 | 11.0 | 19.0 | 0.00 | 0.00 | 0.00 | 37 | 1006.2 |
| 20260503180643 | 68 | 332 | 11.0 | 19.0 | 0.00 | 0.00 | 0.00 | 37 | 1006.3 |
| 20260503180543 | 68 | 332 | 11.0 | 20.0 | 0.00 | 0.00 | 0.00 | 38 | 1006.3 |
| 20260503180443 | 68 | 332 | 12.0 | 20.0 | 0.00 | 0.00 | 0.00 | 36 | 1006.3 |
| 20260503180343 | 68 | 333 | 12.0 | 20.0 | 0.00 | 0.00 | 0.00 | 36 | 1006.3 |
| 20260503180243 | 69 | 334 | 12.0 | 20.0 | 0.00 | 0.00 | 0.00 | 35 | 1006.3 |
| 20260503180143 | 68 | 334 | 12.0 | 20.0 | 0.00 | 0.00 | 0.00 | 38 | 1006.3 |
| 20260503180044 | 68 | 336 | 12.0 | 20.0 | 0.00 | 0.00 | 0.00 | 37 | 1006.2 |
| 20260503175943 | 68 | 338 | 12.0 | 20.0 | 0.00 | 0.00 | 0.00 | 38 | 1006.2 |
| 20260503175843 | 68 | 339 | 12.0 | 20.0 | 0.00 | 0.00 | 0.00 | 39 | 1006.4 |
| 20260503175743 | 68 | 338 | 12.0 | 20.0 | 0.00 | 0.00 | 0.00 | 38 | 1006.4 |
| 20260503175643 | 68 | 339 | 12.0 | 20.0 | 0.00 | 0.00 | 0.00 | 38 | 1006.4 |
| 20260503175543 | 68 | 337 | 12.0 | 20.0 | 0.00 | 0.00 | 0.00 | 37 | 1006.4 |
| 20260503175443 | 68 | 334 | 11.0 | 20.0 | 0.00 | 0.00 | 0.00 | 38 | 1006.4 |
| 20260503175343 | 68 | 331 | 11.0 | 20.0 | 0.00 | 0.00 | 0.00 | 37 | 1006.4 |
| 20260503175243 | 68 | 330 | 11.0 | 20.0 | 0.00 | 0.00 | 0.00 | 36 | 1006.4 |
| 20260503175143 | 68 | 329 | 11.0 | 20.0 | 0.00 | 0.00 | 0.00 | 37 | 1006.4 |
| 20260503175043 | 68 | 327 | 10.0 | 20.0 | 0.00 | 0.00 | 0.00 | 37 | 1006.4 |
| 20260503174943 | 69 | 327 | 10.0 | 20.0 | 0.00 | 0.00 | 0.00 | 38 | 1006.4 |
| 20260503174843 | 69 | 327 | 11.0 | 20.0 | 0.00 | 0.00 | 0.00 | 37 | 1006.4 |
| 20260503174743 | 69 | 324 | 11.0 | 20.0 | 0.00 | 0.00 | 0.00 | 39 | 1006.3 |
| 20260503174643 | 69 | 323 | 10.0 | 19.0 | 0.00 | 0.00 | 0.00 | 38 | 1006.3 |
| 20260503174544 | 68 | 324 | 10.0 | 19.0 | 0.00 | 0.00 | 0.00 | 38 | 1006.4 |
| 20260503174442 | 68 | 326 | 10.0 | 19.0 | 0.00 | 0.00 | 0.00 | 39 | 1006.3 |
| 20260503174343 | 68 | 329 | 10.0 | 19.0 | 0.00 | 0.00 | 0.00 | 39 | 1006.3 |
| 20260503174243 | 68 | 329 | 10.0 | 19.0 | 0.00 | 0.00 | 0.00 | 40 | 1006.3 |
| 20260503174143 | 68 | 331 | 10.0 | 19.0 | 0.00 | 0.00 | 0.00 | 39 | 1006.4 |
| 20260503174043 | 68 | 332 | 10.0 | 19.0 | 0.00 | 0.00 | 0.00 | 37 | 1006.4 |
| 20260503173943 | 68 | 332 | 10.0 | 19.0 | 0.00 | 0.00 | 0.00 | 38 | 1006.4 |
| 20260503173843 | 68 | 331 | 10.0 | 17.0 | 0.00 | 0.00 | 0.00 | 40 | 1006.4 |
| 20260503173743 | 68 | 334 | 10.0 | 17.0 | 0.00 | 0.00 | 0.00 | 41 | 1006.4 |
| 20260503173643 | 68 | 336 | 10.0 | 17.0 | 0.00 | 0.00 | 0.00 | 40 | 1006.4 |
| 20260503173543 | 67 | 336 | 10.0 | 17.0 | 0.00 | 0.00 | 0.00 | 41 | 1006.4 |
| 20260503173442 | 67 | 338 | 11.0 | 17.0 | 0.00 | 0.00 | 0.00 | 40 | 1006.2 |
| 20260503173343 | 67 | 338 | 10.0 | 17.0 | 0.00 | 0.00 | 0.00 | 40 | 1006.4 |
| 20260503173243 | 67 | 338 | 11.0 | 19.0 | 0.00 | 0.00 | 0.00 | 42 | 1006.4 |
| 20260503173143 | 67 | 337 | 11.0 | 19.0 | 0.00 | 0.00 | 0.00 | 41 | 1006.4 |
| 20260503173043 | 67 | 338 | 12.0 | 19.0 | 0.00 | 0.00 | 0.00 | 40 | 1006.4 |
| 20260503172943 | 67 | 339 | 12.0 | 19.0 | 0.00 | 0.00 | 0.00 | 40 | 1006.4 |
| 20260503172843 | 67 | 339 | 12.0 | 19.0 | 0.00 | 0.00 | 0.00 | 39 | 1006.4 |
| 20260503172643 | 67 | 340 | 13.0 | 19.0 | 0.00 | 0.00 | 0.00 | 40 | 1006.5 |
| 20260503172543 | 67 | 341 | 13.0 | 19.0 | 0.00 | 0.00 | 0.00 | 40 | 1006.5 |
| 20260503172443 | 67 | 341 | 13.0 | 19.0 | 0.00 | 0.00 | 0.00 | 40 | 1006.5 |
| 20260503172342 | 67 | 340 | 13.0 | 21.0 | 0.00 | 0.00 | 0.00 | 39 | 1006.5 |
| 20260503172244 | 67 | 341 | 13.0 | 21.0 | 0.00 | 0.00 | 0.00 | 39 | 1006.5 |
| 20260503172143 | 67 | 341 | 13.0 | 21.0 | 0.00 | 0.00 | 0.00 | 40 | 1006.5 |
| 20260503172043 | 67 | 341 | 12.0 | 21.0 | 0.00 | 0.00 | 0.00 | 40 | 1006.5 |
| 20260503171943 | 67 | 340 | 12.0 | 21.0 | 0.00 | 0.00 | 0.00 | 40 | 1006.5 |
| 20260503171844 | 67 | 340 | 12.0 | 21.0 | 0.00 | 0.00 | 0.00 | 39 | 1006.5 |
| 20260503171743 | 67 | 339 | 12.0 | 21.0 | 0.00 | 0.00 | 0.00 | 40 | 1006.5 |
| 20260503171643 | 67 | 338 | 11.0 | 21.0 | 0.00 | 0.00 | 0.00 | 40 | 1006.4 |
| 20260503171543 | 67 | 338 | 11.0 | 21.0 | 0.00 | 0.00 | 0.00 | 40 | 1006.3 |
| 20260503171443 | 67 | 339 | 11.0 | 21.0 | 0.00 | 0.00 | 0.00 | 41 | 1006.4 |
| 20260503171343 | 67 | 341 | 11.0 | 21.0 | 0.00 | 0.00 | 0.00 | 40 | 1006.4 |
| 20260503171243 | 67 | 343 | 11.0 | 21.0 | 0.00 | 0.00 | 0.00 | 42 | 1006.4 |
| 20260503171143 | 67 | 343 | 11.0 | 21.0 | 0.00 | 0.00 | 0.00 | 43 | 1006.4 |
| 20260503171043 | 67 | 342 | 11.0 | 21.0 | 0.00 | 0.00 | 0.00 | 43 | 1006.4 |
| 20260503170943 | 66 | 343 | 11.0 | 21.0 | 0.00 | 0.00 | 0.00 | 42 | 1006.4 |
| 20260503170843 | 67 | 343 | 11.0 | 21.0 | 0.00 | 0.00 | 0.00 | 41 | 1006.5 |
| 20260503170743 | 67 | 342 | 11.0 | 21.0 | 0.00 | 0.00 | 0.00 | 41 | 1006.5 |
| 20260503170644 | 67 | 341 | 11.0 | 21.0 | 0.00 | 0.00 | 0.00 | 42 | 1006.5 |
| 20260503170543 | 67 | 341 | 11.0 | 21.0 | 0.00 | 0.00 | 0.00 | 41 | 1006.4 |
| 20260503170443 | 67 | 340 | 11.0 | 21.0 | 0.00 | 0.00 | 0.00 | 42 | 1006.4 |
| 20260503170343 | 67 | 339 | 11.0 | 21.0 | 0.00 | 0.00 | 0.00 | 43 | 1006.4 |
| 20260503170243 | 67 | 337 | 11.0 | 21.0 | 0.00 | 0.00 | 0.00 | 42 | 1006.5 |
| 20260503170143 | 67 | 336 | 11.0 | 21.0 | 0.00 | 0.00 | 0.00 | 42 | 1006.5 |
| 20260503160142 | 64 | 340 | 11.0 | 19.0 | 0.00 | 0.00 | 0.00 | 46 | 1006.4 |
| 20260503150942 | 60 | 337 | 10.0 | 17.0 | 0.00 | 0.00 | 0.00 | 53 | 1005.9 |
| 20260503150843 | 60 | 338 | 10.0 | 17.0 | 0.00 | 0.00 | 0.00 | 53 | 1005.9 |
| 20260503150743 | 60 | 338 | 10.0 | 17.0 | 0.00 | 0.00 | 0.00 | 55 | 1005.9 |
| 20260503150642 | 60 | 338 | 10.0 | 17.0 | 0.00 | 0.00 | 0.00 | 54 | 1005.9 |
| 20260503150542 | 60 | 337 | 10.0 | 17.0 | 0.00 | 0.00 | 0.00 | 54 | 1005.9 |
| 20260503150442 | 60 | 337 | 10.0 | 17.0 | 0.00 | 0.00 | 0.00 | 55 | 1005.9 |
| 20260503150343 | 60 | 337 | 10.0 | 17.0 | 0.00 | 0.00 | 0.00 | 54 | 1005.9 |
| 20260503150243 | 60 | 337 | 10.0 | 17.0 | 0.00 | 0.00 | 0.00 | 55 | 1005.8 |
| 20260503150142 | 60 | 337 | 11.0 | 17.0 | 0.00 | 0.00 | 0.00 | 55 | 1005.9 |
| 20260503140243 | 57 | 307 | 8.0 | 13.0 | 0.00 | 0.00 | 0.00 | 59 | 1005.6 |
| 20260503140142 | 57 | 311 | 7.0 | 13.0 | 0.00 | 0.00 | 0.00 | 59 | 1005.6 |
| 20260503131341 | 56 | 265 | 10.0 | 14.0 | 0.00 | 0.00 | 0.00 | 58 | 1005.3 |
| 20260503131242 | 56 | 263 | 10.0 | 14.0 | 0.00 | 0.00 | 0.00 | 57 | 1005.4 |
| 20260503131142 | 56 | 262 | 10.0 | 14.0 | 0.00 | 0.00 | 0.00 | 57 | 1005.3 |
| 20260503131042 | 56 | 261 | 10.0 | 14.0 | 0.00 | 0.00 | 0.00 | 58 | 1005.3 |
| 20260503130941 | 55 | 260 | 10.0 | 14.0 | 0.00 | 0.00 | 0.00 | 57 | 1005.3 |
| 20260503130843 | 55 | 260 | 10.0 | 14.0 | 0.00 | 0.00 | 0.00 | 57 | 1005.3 |
| 20260503130742 | 55 | 259 | 10.0 | 14.0 | 0.00 | 0.00 | 0.00 | 57 | 1005.3 |
| 20260503130642 | 55 | 258 | 10.0 | 14.0 | 0.00 | 0.00 | 0.00 | 56 | 1005.3 |
| 20260503130542 | 55 | 257 | 10.0 | 14.0 | 0.00 | 0.00 | 0.00 | 56 | 1005.3 |
| 20260503130442 | 55 | 258 | 10.0 | 14.0 | 0.00 | 0.00 | 0.00 | 56 | 1005.3 |
| 20260503130342 | 55 | 256 | 10.0 | 14.0 | 0.00 | 0.00 | 0.00 | 57 | 1005.3 |
| 20260503130242 | 55 | 254 | 10.0 | 14.0 | 0.00 | 0.00 | 0.00 | 56 | 1005.2 |
| 20260503130142 | 55 | 252 | 11.0 | 15.0 | 0.00 | 0.00 | 0.00 | 55 | 1005.2 |
| 20260503120142 | 53 | 229 | 10.0 | 17.0 | 0.00 | 0.00 | 0.00 | 57 | 1004.7 |
| 20260503110742 | 52 | 216 | 11.0 | 15.0 | 0.00 | 0.00 | 0.00 | 57 | 1004.6 |
| 20260503110642 | 52 | 215 | 11.0 | 14.0 | 0.00 | 0.00 | 0.00 | 57 | 1004.6 |
| 20260503110541 | 52 | 215 | 11.0 | 14.0 | 0.00 | 0.00 | 0.00 | 57 | 1004.6 |
| 20260503110441 | 52 | 215 | 11.0 | 14.0 | 0.00 | 0.00 | 0.00 | 57 | 1004.6 |
| 20260503110341 | 52 | 215 | 11.0 | 14.0 | 0.00 | 0.00 | 0.00 | 57 | 1004.6 |
| 20260503110242 | 52 | 216 | 11.0 | 16.0 | 0.00 | 0.00 | 0.00 | 56 | 1004.6 |
| 20260503110142 | 52 | 215 | 11.0 | 16.0 | 0.00 | 0.00 | 0.00 | 56 | 1004.6 |
| 20260503100242 | 54 | 220 | 9.0 | 17.0 | 0.00 | 0.00 | 0.00 | 53 | 1005.1 |
| 20260503100142 | 54 | 221 | 9.0 | 17.0 | 0.00 | 0.00 | 0.00 | 53 | 1005.1 |
| 20260503090441 | 55 | 210 | 11.0 | 17.0 | 0.00 | 0.00 | 0.00 | 56 | 1005.7 |
| 20260503090341 | 55 | 210 | 10.0 | 17.0 | 0.00 | 0.00 | 0.00 | 56 | 1005.7 |
| 20260503090242 | 55 | 211 | 10.0 | 17.0 | 0.00 | 0.00 | 0.00 | 56 | 1005.7 |
| 20260503090141 | 55 | 212 | 10.0 | 15.0 | 0.00 | 0.00 | 0.00 | 57 | 1005.7 |
| 20260503081541 | 56 | 184 | 13.0 | 19.0 | 0.00 | 0.00 | 0.00 | 51 | 1005.8 |
| 20260503081441 | 56 | 184 | 13.0 | 19.0 | 0.00 | 0.00 | 0.00 | 51 | 1005.8 |
| 20260503081341 | 56 | 182 | 14.0 | 19.0 | 0.00 | 0.00 | 0.00 | 51 | 1005.8 |
| 20260503081242 | 56 | 182 | 14.0 | 20.0 | 0.00 | 0.00 | 0.00 | 51 | 1005.7 |
| 20260503081141 | 56 | 183 | 14.0 | 20.0 | 0.00 | 0.00 | 0.00 | 50 | 1005.8 |
| 20260503081041 | 56 | 183 | 14.0 | 20.0 | 0.00 | 0.00 | 0.00 | 51 | 1005.8 |
| 20260503080941 | 57 | 183 | 15.0 | 21.0 | 0.00 | 0.00 | 0.00 | 51 | 1005.8 |
| 20260503080841 | 57 | 184 | 15.0 | 21.0 | 0.00 | 0.00 | 0.00 | 51 | 1005.8 |
| 20260503080740 | 57 | 185 | 15.0 | 22.0 | 0.00 | 0.00 | 0.00 | 51 | 1006.0 |
| 20260503080641 | 56 | 185 | 15.0 | 22.0 | 0.00 | 0.00 | 0.00 | 51 | 1005.9 |
| 20260503080541 | 56 | 187 | 15.0 | 23.0 | 0.00 | 0.00 | 0.00 | 51 | 1005.9 |
| 20260503080442 | 56 | 187 | 15.0 | 23.0 | 0.00 | 0.00 | 0.00 | 50 | 1006.0 |
| 20260503080341 | 56 | 188 | 14.0 | 23.0 | 0.00 | 0.00 | 0.00 | 50 | 1006.0 |
| 20260503080240 | 56 | 190 | 14.0 | 23.0 | 0.00 | 0.00 | 0.00 | 50 | 1006.0 |
| 20260503080141 | 56 | 189 | 14.0 | 23.0 | 0.00 | 0.00 | 0.00 | 50 | 1006.1 |